Time,TemperatureF,DewpointF,PressureIn,WindDirection,WindDirectionDegrees,WindSpeedMPH,WindSpeedGustMPH,Humidity,HourlyPrecipIn,Conditions,Clouds,dailyrainin,SoftwareType,DateUTC
2013-02-07 00:02:00,46.6,33.5,29.99,WSW,248,7.6,9.8,60,0.00,,,0.00,WUHU216HW,2013-02-07 07:02:00,
2013-02-07 00:03:00,46.6,33.5,29.99,WSW,248,7.2,9.8,60,0.00,,,0.00,WUHU216HW,2013-02-07 07:03:00,
2013-02-07 00:07:00,46.4,33.3,29.99,WSW,248,7.6,9.8,60,0.00,,,0.00,WUHU216HW,2013-02-07 07:07:00,
2013-02-07 00:08:00,46.4,33.3,29.99,WSW,248,6.9,9.8,60,0.00,,,0.00,WUHU216HW,2013-02-07 07:08:00,
2013-02-07 00:13:00,46.4,33.3,29.99,West,270,7.2,9.2,60,0.00,,,0.00,WUHU216HW,2013-02-07 07:13:00,
2013-02-07 00:14:00,46.4,33.3,29.99,WSW,248,7.6,9.2,60,0.00,,,0.00,WUHU216HW,2013-02-07 07:14:00,
2013-02-07 00:18:00,46.4,33.3,29.99,WSW,248,6.7,8.5,60,0.00,,,0.00,WUHU216HW,2013-02-07 07:18:00,
2013-02-07 00:19:00,46.4,33.3,29.99,West,270,6.9,8.5,60,0.00,,,0.00,WUHU216HW,2013-02-07 07:19:00,
2013-02-07 00:23:00,46.4,33.3,29.99,WSW,248,7.4,8.5,60,0.00,,,0.00,WUHU216HW,2013-02-07 07:23:00,
2013-02-07 00:24:00,46.4,33.3,29.99,WSW,248,6.3,8.5,60,0.00,,,0.00,WUHU216HW,2013-02-07 07:24:00,
2013-02-07 00:28:00,46.4,33.3,29.98,WSW,248,6.9,7.6,60,0.00,,,0.00,WUHU216HW,2013-02-07 07:28:00,
2013-02-07 00:29:00,46.4,33.3,29.98,WSW,248,6.7,7.6,60,0.00,,,0.00,WUHU216HW,2013-02-07 07:29:00,
2013-02-07 00:33:00,46.1,33.4,29.98,West,270,6.5,7.8,61,0.00,,,0.00,WUHU216HW,2013-02-07 07:33:00,
2013-02-07 00:34:00,46.1,33.4,29.98,WSW,248,6.3,7.8,61,0.00,,,0.00,WUHU216HW,2013-02-07 07:34:00,
2013-02-07 00:38:00,46.1,33.4,29.98,WSW,248,6.7,7.8,61,0.00,,,0.00,WUHU216HW,2013-02-07 07:38:00,
2013-02-07 00:39:00,46.1,33.4,29.98,WSW,248,6.0,7.8,61,0.00,,,0.00,WUHU216HW,2013-02-07 07:39:00,
2013-02-07 00:43:00,46.1,33.4,29.97,WSW,248,7.4,7.6,61,0.00,,,0.00,WUHU216HW,2013-02-07 07:43:00,
2013-02-07 00:44:00,46.1,33.4,29.98,WSW,248,6.5,7.6,61,0.00,,,0.00,WUHU216HW,2013-02-07 07:44:00,
2013-02-07 00:48:00,46.3,33.6,29.97,WSW,248,6.3,7.6,61,0.00,,,0.00,WUHU216HW,2013-02-07 07:48:00,
2013-02-07 00:49:00,46.1,33.4,29.97,WSW,248,5.8,7.6,61,0.00,,,0.00,WUHU216HW,2013-02-07 07:49:00,
2013-02-07 00:50:00,46.1,33.4,29.97,West,270,6.3,7.6,61,0.00,,,0.00,WUHU216HW,2013-02-07 07:50:00,
2013-02-07 00:53:00,46.1,33.4,29.97,WSW,248,5.1,7.6,61,0.00,,,0.00,WUHU216HW,2013-02-07 07:53:00,
2013-02-07 00:54:00,46.1,33.4,29.97,WSW,248,6.7,7.6,61,0.00,,,0.00,WUHU216HW,2013-02-07 07:54:00,
2013-02-07 00:55:00,46.1,33.4,29.97,WSW,248,6.3,7.2,61,0.00,,,0.00,WUHU216HW,2013-02-07 07:55:00,
2013-02-07 00:58:00,46.1,33.4,29.97,WSW,248,6.3,6.9,61,0.00,,,0.00,WUHU216HW,2013-02-07 07:58:00,
2013-02-07 00:59:00,46.1,33.4,29.97,WSW,248,5.8,6.9,61,0.00,,,0.00,WUHU216HW,2013-02-07 07:59:00,
2013-02-07 01:00:00,46.1,33.4,29.97,WSW,248,6.7,7.4,61,0.00,,,0.00,WUHU216HW,2013-02-07 08:00:00,
2013-02-07 01:03:00,45.9,33.2,29.97,SW,225,4.9,7.4,61,0.00,,,0.00,WUHU216HW,2013-02-07 08:03:00,
2013-02-07 01:04:00,45.9,33.2,29.97,WSW,248,4.9,7.4,61,0.00,,,0.00,WUHU216HW,2013-02-07 08:04:00,
2013-02-07 01:05:00,45.9,33.2,29.97,WSW,248,5.4,7.4,61,0.00,,,0.00,WUHU216HW,2013-02-07 08:05:00,
2013-02-07 01:08:00,45.7,33.0,29.97,SW,225,5.8,7.4,61,0.00,,,0.00,WUHU216HW,2013-02-07 08:08:00,
2013-02-07 01:09:00,45.7,33.0,29.97,WSW,248,3.8,7.4,61,0.00,,,0.00,WUHU216HW,2013-02-07 08:09:00,
2013-02-07 01:10:00,45.7,33.0,29.97,WSW,248,4.3,6.7,61,0.00,,,0.00,WUHU216HW,2013-02-07 08:10:00,
2013-02-07 01:13:00,45.5,32.9,29.97,SW,225,4.9,6.3,61,0.00,,,0.00,WUHU216HW,2013-02-07 08:13:00,
2013-02-07 01:14:00,45.4,33.1,29.97,SW,225,4.7,6.3,62,0.00,,,0.00,WUHU216HW,2013-02-07 08:14:00,
2013-02-07 01:15:00,45.4,33.1,29.97,WSW,248,4.9,6.3,62,0.00,,,0.00,WUHU216HW,2013-02-07 08:15:00,
2013-02-07 01:18:00,45.0,32.8,29.98,WSW,248,4.0,5.4,62,0.00,,,0.00,WUHU216HW,2013-02-07 08:18:00,
2013-02-07 01:20:00,45.0,32.8,29.98,WSW,248,3.1,5.4,62,0.00,,,0.00,WUHU216HW,2013-02-07 08:20:00,
2013-02-07 01:24:00,45.0,32.8,29.98,ENE,68,2.5,5.4,62,0.00,,,0.00,WUHU216HW,2013-02-07 08:24:00,
2013-02-07 01:25:00,44.8,32.6,29.98,ENE,68,1.6,5.4,62,0.00,,,0.00,WUHU216HW,2013-02-07 08:25:00,
2013-02-07 01:29:00,44.6,32.4,29.98,ESE,113,0.9,3.8,62,0.00,,,0.00,WUHU216HW,2013-02-07 08:29:00,
2013-02-07 01:30:00,44.6,32.4,29.98,ESE,113,0.9,3.8,62,0.00,,,0.00,WUHU216HW,2013-02-07 08:30:00,
2013-02-07 01:31:00,44.6,32.4,29.98,ESE,113,2.5,2.7,62,0.00,,,0.00,WUHU216HW,2013-02-07 08:31:00,
2013-02-07 01:34:00,44.5,31.9,29.98,ESE,113,2.9,4.3,61,0.00,,,0.00,WUHU216HW,2013-02-07 08:34:00,
2013-02-07 01:35:00,44.5,32.2,29.98,ESE,113,0.7,4.3,62,0.00,,,0.00,WUHU216HW,2013-02-07 08:35:00,
2013-02-07 01:36:00,44.3,32.0,29.98,ESE,113,1.1,4.3,62,0.00,,,0.00,WUHU216HW,2013-02-07 08:36:00,
2013-02-07 01:39:00,44.3,32.0,29.98,ESE,113,2.0,4.3,62,0.00,,,0.00,WUHU216HW,2013-02-07 08:39:00,
2013-02-07 01:40:00,44.1,32.0,29.99,ESE,113,0.4,4.3,62,0.00,,,0.00,WUHU216HW,2013-02-07 08:40:00,
2013-02-07 01:41:00,44.1,32.0,29.99,ESE,113,0.0,4.3,62,0.00,,,0.00,WUHU216HW,2013-02-07 08:41:00,
2013-02-07 01:44:00,43.9,31.8,29.99,ESE,113,0.7,3.6,62,0.00,,,0.00,WUHU216HW,2013-02-07 08:44:00,
2013-02-07 01:45:00,43.9,31.8,29.99,South,180,1.1,3.6,62,0.00,,,0.00,WUHU216HW,2013-02-07 08:45:00,
2013-02-07 01:46:00,43.7,31.6,29.99,SSW,203,2.0,3.6,62,0.00,,,0.00,WUHU216HW,2013-02-07 08:46:00,
2013-02-07 01:49:00,43.6,31.4,29.99,South,180,1.3,2.2,62,0.00,,,0.00,WUHU216HW,2013-02-07 08:49:00,
2013-02-07 01:50:00,43.6,31.4,29.99,South,180,1.6,2.2,62,0.00,,,0.00,WUHU216HW,2013-02-07 08:50:00,
2013-02-07 01:51:00,43.6,31.8,29.99,SSW,203,0.4,2.2,63,0.00,,,0.00,WUHU216HW,2013-02-07 08:51:00,
2013-02-07 01:54:00,43.4,31.6,29.98,West,270,1.3,2.2,63,0.00,,,0.00,WUHU216HW,2013-02-07 08:54:00,
2013-02-07 01:55:00,43.4,31.6,29.99,SW,225,1.1,2.2,63,0.00,,,0.00,WUHU216HW,2013-02-07 08:55:00,
2013-02-07 01:56:00,43.4,31.6,29.99,South,180,1.6,2.0,63,0.00,,,0.00,WUHU216HW,2013-02-07 08:56:00,
2013-02-07 01:59:00,43.4,31.6,29.99,West,270,1.1,3.1,63,0.00,,,0.00,WUHU216HW,2013-02-07 08:59:00,
2013-02-07 02:00:00,43.6,31.8,29.99,SW,225,1.1,3.1,63,0.00,,,0.00,WUHU216HW,2013-02-07 09:00:00,
2013-02-07 02:01:00,43.4,31.6,29.99,SW,225,1.8,3.1,63,0.00,,,0.00,WUHU216HW,2013-02-07 09:01:00,
2013-02-07 02:04:00,43.4,31.6,29.99,SW,225,1.1,3.1,63,0.00,,,0.00,WUHU216HW,2013-02-07 09:04:00,
2013-02-07 02:05:00,43.2,31.4,29.99,SW,225,1.8,3.1,63,0.00,,,0.00,WUHU216HW,2013-02-07 09:05:00,
2013-02-07 02:06:00,43.2,31.4,29.99,SW,225,1.3,3.1,63,0.00,,,0.00,WUHU216HW,2013-02-07 09:06:00,
2013-02-07 02:07:00,43.2,31.4,29.99,WSW,248,2.2,3.1,63,0.00,,,0.00,WUHU216HW,2013-02-07 09:07:00,
2013-02-07 02:09:00,42.8,31.1,29.99,SSW,203,2.5,2.5,63,0.00,,,0.00,WUHU216HW,2013-02-07 09:09:00,
2013-02-07 02:11:00,42.8,31.1,29.99,SSW,203,2.7,2.9,63,0.00,,,0.00,WUHU216HW,2013-02-07 09:11:00,
2013-02-07 02:12:00,42.7,30.9,29.99,SSW,203,3.1,3.8,63,0.00,,,0.00,WUHU216HW,2013-02-07 09:12:00,
2013-02-07 02:14:00,42.5,31.2,29.98,SW,225,1.3,3.8,64,0.00,,,0.00,WUHU216HW,2013-02-07 09:14:00,
2013-02-07 02:16:00,42.3,31.0,29.98,SW,225,1.1,3.8,64,0.00,,,0.00,WUHU216HW,2013-02-07 09:16:00,
2013-02-07 02:17:00,42.1,30.8,29.98,SW,225,1.1,3.8,64,0.00,,,0.00,WUHU216HW,2013-02-07 09:17:00,
2013-02-07 02:20:00,41.9,31.0,29.98,SW,225,1.1,3.8,65,0.00,,,0.00,WUHU216HW,2013-02-07 09:20:00,
2013-02-07 02:21:00,41.9,31.0,29.98,SW,225,1.3,3.8,65,0.00,,,0.00,WUHU216HW,2013-02-07 09:21:00,
2013-02-07 02:22:00,41.9,31.0,29.98,SW,225,1.3,3.1,65,0.00,,,0.00,WUHU216HW,2013-02-07 09:22:00,
2013-02-07 02:24:00,41.8,30.9,29.98,SW,225,1.3,2.0,65,0.00,,,0.00,WUHU216HW,2013-02-07 09:24:00,
2013-02-07 02:26:00,41.8,30.9,29.98,SW,225,1.8,2.0,65,0.00,,,0.00,WUHU216HW,2013-02-07 09:26:00,
2013-02-07 02:27:00,41.8,30.9,29.98,SSW,203,3.8,4.3,65,0.00,,,0.00,WUHU216HW,2013-02-07 09:27:00,
2013-02-07 02:30:00,41.4,30.5,29.98,SSW,203,2.2,4.3,65,0.00,,,0.00,WUHU216HW,2013-02-07 09:30:00,
2013-02-07 02:31:00,41.4,30.5,29.98,SW,225,1.6,4.3,65,0.00,,,0.00,WUHU216HW,2013-02-07 09:31:00,
2013-02-07 02:32:00,41.4,30.5,29.98,SW,225,1.6,4.3,65,0.00,,,0.00,WUHU216HW,2013-02-07 09:32:00,
2013-02-07 02:35:00,41.0,30.5,29.98,SW,225,2.5,4.3,66,0.00,,,0.00,WUHU216HW,2013-02-07 09:35:00,
2013-02-07 02:36:00,41.0,30.5,29.98,SW,225,2.9,4.3,66,0.00,,,0.00,WUHU216HW,2013-02-07 09:36:00,
2013-02-07 02:37:00,41.0,30.5,29.98,SW,225,2.7,3.6,66,0.00,,,0.00,WUHU216HW,2013-02-07 09:37:00,
2013-02-07 02:40:00,41.0,30.9,29.98,WSW,248,2.0,2.9,67,0.00,,,0.00,WUHU216HW,2013-02-07 09:40:00,
2013-02-07 02:41:00,41.0,30.9,29.98,WSW,248,1.1,2.9,67,0.00,,,0.00,WUHU216HW,2013-02-07 09:41:00,
2013-02-07 02:42:00,40.9,30.7,29.98,WSW,248,1.1,2.9,67,0.00,,,0.00,WUHU216HW,2013-02-07 09:42:00,
2013-02-07 02:43:00,40.9,30.7,29.98,SW,225,1.8,2.9,67,0.00,,,0.00,WUHU216HW,2013-02-07 09:43:00,
2013-02-07 02:45:00,40.9,30.7,29.98,WSW,248,4.0,4.0,67,0.00,,,0.00,WUHU216HW,2013-02-07 09:45:00,
2013-02-07 02:46:00,40.9,30.7,29.98,WSW,248,3.4,4.0,67,0.00,,,0.00,WUHU216HW,2013-02-07 09:46:00,
2013-02-07 02:47:00,40.9,30.7,29.98,WSW,248,2.0,4.0,67,0.00,,,0.00,WUHU216HW,2013-02-07 09:47:00,
2013-02-07 02:48:00,40.7,30.5,29.98,WSW,248,1.1,4.0,67,0.00,,,0.00,WUHU216HW,2013-02-07 09:48:00,
2013-02-07 02:51:00,40.7,30.5,29.98,SW,225,1.1,4.0,67,0.00,,,0.00,WUHU216HW,2013-02-07 09:51:00,
2013-02-07 02:52:00,40.7,30.5,29.98,WSW,248,3.1,4.0,67,0.00,,,0.00,WUHU216HW,2013-02-07 09:52:00,
2013-02-07 02:53:00,40.7,30.5,29.98,SW,225,3.8,4.0,67,0.00,,,0.00,WUHU216HW,2013-02-07 09:53:00,
2013-02-07 02:56:00,40.5,30.3,29.98,SSW,203,2.7,4.7,67,0.00,,,0.00,WUHU216HW,2013-02-07 09:56:00,
2013-02-07 02:57:00,40.5,30.3,29.98,SW,225,2.5,4.7,67,0.00,,,0.00,WUHU216HW,2013-02-07 09:57:00,
2013-02-07 02:58:00,40.5,30.3,29.98,SW,225,1.1,4.7,67,0.00,,,0.00,WUHU216HW,2013-02-07 09:58:00,
2013-02-07 03:01:00,40.3,30.6,29.98,WSW,248,2.9,4.7,68,0.00,,,0.00,WUHU216HW,2013-02-07 10:01:00,
2013-02-07 03:02:00,40.3,30.6,29.98,WSW,248,1.8,4.7,68,0.00,,,0.00,WUHU216HW,2013-02-07 10:02:00,
2013-02-07 03:03:00,40.3,31.0,29.99,WSW,248,1.6,4.7,69,0.00,,,0.00,WUHU216HW,2013-02-07 10:03:00,
2013-02-07 03:06:00,40.1,31.1,29.98,WSW,248,2.5,4.0,70,0.00,,,0.00,WUHU216HW,2013-02-07 10:06:00,
2013-02-07 03:07:00,40.1,31.1,29.98,WSW,248,2.7,4.0,70,0.00,,,0.00,WUHU216HW,2013-02-07 10:07:00,
2013-02-07 03:08:00,40.1,31.1,29.98,WSW,248,2.7,4.0,70,0.00,,,0.00,WUHU216HW,2013-02-07 10:08:00,
2013-02-07 03:12:00,40.1,31.1,29.98,WSW,248,1.1,4.0,70,0.00,,,0.00,WUHU216HW,2013-02-07 10:12:00,
2013-02-07 03:13:00,40.1,31.1,29.98,WSW,248,3.8,4.0,70,0.00,,,0.00,WUHU216HW,2013-02-07 10:13:00,
2013-02-07 03:14:00,40.0,31.0,29.98,West,270,4.7,4.7,70,0.00,,,0.00,WUHU216HW,2013-02-07 10:14:00,
2013-02-07 03:17:00,40.0,31.0,29.98,WSW,248,4.3,4.7,70,0.00,,,0.00,WUHU216HW,2013-02-07 10:17:00,
2013-02-07 03:18:00,40.0,31.0,29.98,WSW,248,2.5,4.7,70,0.00,,,0.00,WUHU216HW,2013-02-07 10:18:00,
2013-02-07 03:19:00,40.0,30.6,29.98,SW,225,1.3,4.7,69,0.00,,,0.00,WUHU216HW,2013-02-07 10:19:00,
2013-02-07 03:22:00,39.8,30.8,29.98,WSW,248,2.2,4.7,70,0.00,,,0.00,WUHU216HW,2013-02-07 10:22:00,
2013-02-07 03:23:00,39.8,30.8,29.98,West,270,2.2,4.7,70,0.00,,,0.00,WUHU216HW,2013-02-07 10:23:00,
2013-02-07 03:24:00,39.8,30.8,29.98,WSW,248,2.5,4.7,70,0.00,,,0.00,WUHU216HW,2013-02-07 10:24:00,
2013-02-07 03:27:00,39.8,30.8,29.98,SW,225,1.1,3.8,70,0.00,,,0.00,WUHU216HW,2013-02-07 10:27:00,
2013-02-07 03:28:00,39.8,31.2,29.98,SW,225,1.1,3.4,71,0.00,,,0.00,WUHU216HW,2013-02-07 10:28:00,
2013-02-07 03:29:00,39.8,31.2,29.98,WSW,248,0.9,3.4,71,0.00,,,0.00,WUHU216HW,2013-02-07 10:29:00,
2013-02-07 03:32:00,39.6,31.0,29.98,WSW,248,3.1,4.5,71,0.00,,,0.00,WUHU216HW,2013-02-07 10:32:00,
2013-02-07 03:33:00,39.6,31.0,29.98,WSW,248,3.6,4.5,71,0.00,,,0.00,WUHU216HW,2013-02-07 10:33:00,
2013-02-07 03:34:00,39.6,31.0,29.98,SW,225,2.5,4.5,71,0.00,,,0.00,WUHU216HW,2013-02-07 10:34:00,
2013-02-07 03:37:00,39.4,30.8,29.98,SW,225,2.0,4.5,71,0.00,,,0.00,WUHU216HW,2013-02-07 10:37:00,
2013-02-07 03:38:00,39.4,30.8,29.98,WSW,248,2.0,4.5,71,0.00,,,0.00,WUHU216HW,2013-02-07 10:38:00,
2013-02-07 03:40:00,39.4,30.8,29.98,SW,225,4.0,4.5,71,0.00,,,0.00,WUHU216HW,2013-02-07 10:40:00,
2013-02-07 03:43:00,39.4,30.8,29.98,SW,225,2.2,4.0,71,0.00,,,0.00,WUHU216HW,2013-02-07 10:43:00,
2013-02-07 03:45:00,39.6,30.6,29.98,SW,225,2.9,4.0,70,0.00,,,0.00,WUHU216HW,2013-02-07 10:45:00,
2013-02-07 03:48:00,39.6,31.0,29.98,WSW,248,3.8,4.0,71,0.00,,,0.00,WUHU216HW,2013-02-07 10:48:00,
2013-02-07 03:50:00,39.6,31.0,29.98,WSW,248,3.8,4.3,71,0.00,,,0.00,WUHU216HW,2013-02-07 10:50:00,
2013-02-07 03:53:00,39.8,31.2,29.98,West,270,4.7,5.1,71,0.00,,,0.00,WUHU216HW,2013-02-07 10:53:00,
2013-02-07 03:54:00,39.8,31.2,29.98,West,270,5.1,5.1,71,0.00,,,0.00,WUHU216HW,2013-02-07 10:54:00,
2013-02-07 03:55:00,39.8,31.4,29.97,West,270,4.9,5.4,72,0.00,,,0.00,WUHU216HW,2013-02-07 10:55:00,
2013-02-07 03:58:00,39.6,31.3,29.98,West,270,4.5,5.4,72,0.00,,,0.00,WUHU216HW,2013-02-07 10:58:00,
2013-02-07 03:59:00,39.6,31.3,29.98,WSW,248,4.3,5.4,72,0.00,,,0.00,WUHU216HW,2013-02-07 10:59:00,
2013-02-07 04:00:00,39.6,31.3,29.97,West,270,4.3,5.4,72,0.00,,,0.00,WUHU216HW,2013-02-07 11:00:00,
2013-02-07 04:04:00,39.6,31.3,29.97,West,270,1.8,5.4,72,0.00,,,0.00,WUHU216HW,2013-02-07 11:04:00,
2013-02-07 04:05:00,39.6,31.3,29.97,WSW,248,1.8,5.4,72,0.00,,,0.00,WUHU216HW,2013-02-07 11:05:00,
2013-02-07 04:09:00,39.6,31.0,29.98,SE,135,2.9,4.9,71,0.00,,,0.00,WUHU216HW,2013-02-07 11:09:00,
2013-02-07 04:10:00,39.6,31.0,29.98,SSE,158,4.5,4.9,71,0.00,,,0.00,WUHU216HW,2013-02-07 11:10:00,
2013-02-07 04:14:00,39.4,30.8,29.98,ESE,113,1.8,4.7,71,0.00,,,0.00,WUHU216HW,2013-02-07 11:14:00,
2013-02-07 04:15:00,39.4,30.8,29.98,ESE,113,3.4,4.7,71,0.00,,,0.00,WUHU216HW,2013-02-07 11:15:00,
2013-02-07 04:19:00,39.4,30.8,29.98,South,180,1.6,4.7,71,0.00,,,0.00,WUHU216HW,2013-02-07 11:19:00,
2013-02-07 04:20:00,39.2,30.6,29.98,South,180,1.8,4.7,71,0.00,,,0.00,WUHU216HW,2013-02-07 11:20:00,
2013-02-07 04:24:00,39.2,30.6,29.98,SSE,158,1.3,3.6,71,0.00,,,0.00,WUHU216HW,2013-02-07 11:24:00,
2013-02-07 04:25:00,39.2,30.6,29.98,SSW,203,1.3,3.6,71,0.00,,,0.00,WUHU216HW,2013-02-07 11:25:00,
2013-02-07 04:29:00,39.1,30.4,29.98,SW,225,1.6,1.8,71,0.00,,,0.00,WUHU216HW,2013-02-07 11:29:00,
2013-02-07 04:30:00,39.2,30.6,29.98,SW,225,1.3,1.8,71,0.00,,,0.00,WUHU216HW,2013-02-07 11:30:00,
2013-02-07 04:34:00,39.2,31.0,29.97,SW,225,1.8,1.8,72,0.00,,,0.00,WUHU216HW,2013-02-07 11:34:00,
2013-02-07 04:36:00,39.2,30.6,29.97,WSW,248,1.6,1.8,71,0.00,,,0.00,WUHU216HW,2013-02-07 11:36:00,
2013-02-07 04:39:00,39.2,31.0,29.98,WSW,248,2.9,4.9,72,0.00,,,0.00,WUHU216HW,2013-02-07 11:39:00,
2013-02-07 04:40:00,39.2,31.0,29.98,WSW,248,2.9,4.9,72,0.00,,,0.00,WUHU216HW,2013-02-07 11:40:00,
2013-02-07 04:41:00,39.2,31.0,29.98,WSW,248,2.2,4.9,72,0.00,,,0.00,WUHU216HW,2013-02-07 11:41:00,
2013-02-07 04:44:00,39.2,30.6,29.98,SSW,203,1.3,4.9,71,0.00,,,0.00,WUHU216HW,2013-02-07 11:44:00,
2013-02-07 04:45:00,39.2,30.6,29.98,SW,225,1.1,4.9,71,0.00,,,0.00,WUHU216HW,2013-02-07 11:45:00,
2013-02-07 04:46:00,39.2,30.6,29.98,SE,135,1.6,4.9,71,0.00,,,0.00,WUHU216HW,2013-02-07 11:46:00,
2013-02-07 04:50:00,39.1,30.4,29.98,South,180,1.8,3.4,71,0.00,,,0.00,WUHU216HW,2013-02-07 11:50:00,
2013-02-07 04:51:00,39.1,30.4,29.98,SSW,203,2.0,3.4,71,0.00,,,0.00,WUHU216HW,2013-02-07 11:51:00,
2013-02-07 04:55:00,38.7,30.1,29.98,SW,225,1.6,3.4,71,0.00,,,0.00,WUHU216HW,2013-02-07 11:55:00,
2013-02-07 04:56:00,38.7,30.1,29.98,SSW,203,1.8,3.4,71,0.00,,,0.00,WUHU216HW,2013-02-07 11:56:00,
2013-02-07 05:00:00,38.3,29.8,29.98,WSW,248,1.3,2.5,71,0.00,,,0.00,WUHU216HW,2013-02-07 12:00:00,
2013-02-07 05:01:00,38.3,29.8,29.98,SW,225,2.0,2.5,71,0.00,,,0.00,WUHU216HW,2013-02-07 12:01:00,
2013-02-07 05:05:00,38.2,30.0,29.98,WSW,248,2.0,2.9,72,0.00,,,0.00,WUHU216HW,2013-02-07 12:05:00,
2013-02-07 05:06:00,38.0,29.8,29.98,WSW,248,1.1,2.9,72,0.00,,,0.00,WUHU216HW,2013-02-07 12:06:00,
2013-02-07 05:10:00,38.2,30.2,29.98,SW,225,1.8,2.9,73,0.00,,,0.00,WUHU216HW,2013-02-07 12:10:00,
2013-02-07 05:11:00,38.2,30.2,29.98,SW,225,2.0,2.9,73,0.00,,,0.00,WUHU216HW,2013-02-07 12:11:00,
2013-02-07 05:16:00,38.0,30.1,29.98,SW,225,1.8,3.1,73,0.00,,,0.00,WUHU216HW,2013-02-07 12:16:00,
2013-02-07 05:21:00,37.8,29.6,29.98,SW,225,1.8,3.1,72,0.00,,,0.00,WUHU216HW,2013-02-07 12:21:00,
2013-02-07 05:26:00,37.6,29.8,29.98,SW,225,2.5,2.7,73,0.00,,,0.00,WUHU216HW,2013-02-07 12:26:00,
2013-02-07 05:27:00,37.6,29.8,29.98,SW,225,2.0,2.7,73,0.00,,,0.00,WUHU216HW,2013-02-07 12:27:00,
2013-02-07 05:31:00,37.4,29.6,29.98,SW,225,2.5,2.7,73,0.00,,,0.00,WUHU216HW,2013-02-07 12:31:00,
2013-02-07 05:32:00,37.4,29.6,29.98,SW,225,2.5,2.7,73,0.00,,,0.00,WUHU216HW,2013-02-07 12:32:00,
2013-02-07 05:36:00,37.3,29.4,29.98,SW,225,1.8,2.7,73,0.00,,,0.00,WUHU216HW,2013-02-07 12:36:00,
2013-02-07 05:37:00,37.3,29.4,29.98,SW,225,2.2,2.7,73,0.00,,,0.00,WUHU216HW,2013-02-07 12:37:00,
2013-02-07 05:38:00,37.3,29.4,29.98,SW,225,2.0,2.7,73,0.00,,,0.00,WUHU216HW,2013-02-07 12:38:00,
2013-02-07 05:41:00,37.1,29.3,29.98,SW,225,2.5,2.7,73,0.00,,,0.00,WUHU216HW,2013-02-07 12:41:00,
2013-02-07 05:42:00,37.1,29.3,29.98,SW,225,2.2,2.7,73,0.00,,,0.00,WUHU216HW,2013-02-07 12:42:00,
2013-02-07 05:43:00,37.1,29.3,29.98,SW,225,2.2,2.7,73,0.00,,,0.00,WUHU216HW,2013-02-07 12:43:00,
2013-02-07 05:46:00,37.1,29.3,29.99,SW,225,3.8,3.8,73,0.00,,,0.00,WUHU216HW,2013-02-07 12:46:00,
2013-02-07 05:47:00,37.1,29.3,29.99,SW,225,3.6,3.8,73,0.00,,,0.00,WUHU216HW,2013-02-07 12:47:00,
2013-02-07 05:48:00,37.1,29.3,29.99,SW,225,2.2,3.8,73,0.00,,,0.00,WUHU216HW,2013-02-07 12:48:00,
2013-02-07 05:51:00,37.1,29.3,29.99,WSW,248,0.7,3.8,73,0.00,,,0.00,WUHU216HW,2013-02-07 12:51:00,
2013-02-07 05:52:00,37.1,29.3,29.99,WSW,248,0.9,3.8,73,0.00,,,0.00,WUHU216HW,2013-02-07 12:52:00,
2013-02-07 05:53:00,37.1,29.3,29.99,SW,225,1.8,3.8,73,0.00,,,0.00,WUHU216HW,2013-02-07 12:53:00,
2013-02-07 05:56:00,37.1,29.5,29.99,SW,225,1.1,3.8,74,0.00,,,0.00,WUHU216HW,2013-02-07 12:56:00,
2013-02-07 05:57:00,37.1,29.5,29.99,WSW,248,2.5,2.7,74,0.00,,,0.00,WUHU216HW,2013-02-07 12:57:00,
2013-02-07 05:58:00,37.3,29.7,29.99,SW,225,2.5,2.7,74,0.00,,,0.00,WUHU216HW,2013-02-07 12:58:00,
2013-02-07 06:01:00,37.1,29.5,29.99,SW,225,4.0,4.3,74,0.00,,,0.00,WUHU216HW,2013-02-07 13:01:00,
2013-02-07 06:02:00,37.1,29.5,29.99,SW,225,4.0,4.7,74,0.00,,,0.00,WUHU216HW,2013-02-07 13:02:00,
2013-02-07 06:03:00,37.1,29.5,29.99,WSW,248,3.6,4.7,74,0.00,,,0.00,WUHU216HW,2013-02-07 13:03:00,
2013-02-07 06:04:00,37.1,29.5,29.99,SW,225,3.1,4.7,74,0.00,,,0.00,WUHU216HW,2013-02-07 13:04:00,
2013-02-07 06:06:00,37.1,29.5,29.99,SW,225,2.0,4.7,74,0.00,,,0.00,WUHU216HW,2013-02-07 13:06:00,
2013-02-07 06:07:00,37.1,29.5,29.99,SW,225,2.9,4.7,74,0.00,,,0.00,WUHU216HW,2013-02-07 13:07:00,
2013-02-07 06:08:00,37.1,29.5,29.99,WSW,248,2.5,4.7,74,0.00,,,0.00,WUHU216HW,2013-02-07 13:08:00,
2013-02-07 06:09:00,37.1,29.5,29.99,SW,225,2.7,4.7,74,0.00,,,0.00,WUHU216HW,2013-02-07 13:09:00,
2013-02-07 06:12:00,37.1,29.5,29.99,SW,225,3.6,4.0,74,0.00,,,0.00,WUHU216HW,2013-02-07 13:12:00,
2013-02-07 06:13:00,37.1,29.5,29.99,SW,225,3.4,4.0,74,0.00,,,0.00,WUHU216HW,2013-02-07 13:13:00,
2013-02-07 06:14:00,37.1,29.5,29.99,SW,225,2.7,4.0,74,0.00,,,0.00,WUHU216HW,2013-02-07 13:14:00,
2013-02-07 06:17:00,37.1,29.5,29.99,SW,225,4.3,4.3,74,0.00,,,0.00,WUHU216HW,2013-02-07 13:17:00,
2013-02-07 06:18:00,37.3,29.7,29.99,WSW,248,3.6,4.3,74,0.00,,,0.00,WUHU216HW,2013-02-07 13:18:00,
2013-02-07 06:19:00,37.3,29.7,29.99,WSW,248,3.8,4.7,74,0.00,,,0.00,WUHU216HW,2013-02-07 13:19:00,
2013-02-07 06:22:00,37.3,29.7,29.99,WSW,248,3.4,4.7,74,0.00,,,0.00,WUHU216HW,2013-02-07 13:22:00,
2013-02-07 06:23:00,37.3,29.7,29.99,SW,225,4.0,4.7,74,0.00,,,0.00,WUHU216HW,2013-02-07 13:23:00,
2013-02-07 06:24:00,37.4,29.9,29.99,WSW,248,3.6,4.7,74,0.00,,,0.00,WUHU216HW,2013-02-07 13:24:00,
2013-02-07 06:27:00,37.4,29.6,29.99,SW,225,4.0,4.9,73,0.00,,,0.00,WUHU216HW,2013-02-07 13:27:00,
2013-02-07 06:28:00,37.4,29.9,29.99,SW,225,4.0,4.9,74,0.00,,,0.00,WUHU216HW,2013-02-07 13:28:00,
2013-02-07 06:29:00,37.4,29.6,29.99,WSW,248,3.8,4.9,73,0.00,,,0.00,WUHU216HW,2013-02-07 13:29:00,
2013-02-07 06:32:00,37.6,29.8,29.99,WSW,248,2.2,4.9,73,0.00,,,0.00,WUHU216HW,2013-02-07 13:32:00,
2013-02-07 06:33:00,37.6,29.8,29.99,WSW,248,1.6,4.9,73,0.00,,,0.00,WUHU216HW,2013-02-07 13:33:00,
2013-02-07 06:34:00,37.6,29.8,29.99,WSW,248,1.8,4.9,73,0.00,,,0.00,WUHU216HW,2013-02-07 13:34:00,
2013-02-07 06:37:00,37.6,29.8,29.99,SW,225,2.5,4.3,73,0.00,,,0.00,WUHU216HW,2013-02-07 13:37:00,
2013-02-07 06:38:00,37.6,29.8,29.99,SW,225,2.2,4.3,73,0.00,,,0.00,WUHU216HW,2013-02-07 13:38:00,
2013-02-07 06:39:00,37.6,29.8,29.99,WSW,248,1.8,4.0,73,0.00,,,0.00,WUHU216HW,2013-02-07 13:39:00,
2013-02-07 06:42:00,37.6,29.8,29.99,WSW,248,3.1,3.1,73,0.00,,,0.00,WUHU216HW,2013-02-07 13:42:00,
2013-02-07 06:43:00,37.6,29.8,29.99,SW,225,3.4,4.0,73,0.00,,,0.00,WUHU216HW,2013-02-07 13:43:00,
2013-02-07 06:44:00,37.6,29.4,29.99,SW,225,3.6,4.0,72,0.00,,,0.00,WUHU216HW,2013-02-07 13:44:00,
2013-02-07 06:47:00,37.6,29.4,29.99,WSW,248,2.9,4.3,72,0.00,,,0.00,WUHU216HW,2013-02-07 13:47:00,
2013-02-07 06:48:00,37.6,29.4,29.99,WSW,248,2.2,4.3,72,0.00,,,0.00,WUHU216HW,2013-02-07 13:48:00,
2013-02-07 06:49:00,37.6,29.4,29.99,SW,225,2.0,4.3,72,0.00,,,0.00,WUHU216HW,2013-02-07 13:49:00,
2013-02-07 06:50:00,37.6,29.4,29.99,SW,225,2.0,4.3,72,0.00,,,0.00,WUHU216HW,2013-02-07 13:50:00,
2013-02-07 06:52:00,37.6,29.4,29.99,SW,225,1.8,4.3,72,0.00,,,0.00,WUHU216HW,2013-02-07 13:52:00,
2013-02-07 06:53:00,37.6,29.4,29.99,SW,225,1.8,4.3,72,0.00,,,0.00,WUHU216HW,2013-02-07 13:53:00,
2013-02-07 06:54:00,37.6,29.4,29.99,SW,225,2.5,4.3,72,0.00,,,0.00,WUHU216HW,2013-02-07 13:54:00,
2013-02-07 06:55:00,37.6,29.4,29.99,SW,225,2.5,4.3,72,0.00,,,0.00,WUHU216HW,2013-02-07 13:55:00,
2013-02-07 06:57:00,37.4,29.3,29.99,SW,225,2.0,3.4,72,0.00,,,0.00,WUHU216HW,2013-02-07 13:57:00,
2013-02-07 06:59:00,37.4,29.3,29.99,WSW,248,2.0,3.4,72,0.00,,,0.00,WUHU216HW,2013-02-07 13:59:00,
2013-02-07 07:00:00,37.4,29.3,29.99,SW,225,2.5,3.4,72,0.00,,,0.00,WUHU216HW,2013-02-07 14:00:00,
2013-02-07 07:02:00,37.4,29.3,29.99,SW,225,1.8,2.5,72,0.00,,,0.00,WUHU216HW,2013-02-07 14:02:00,
2013-02-07 07:04:00,37.4,29.3,29.99,SW,225,1.8,2.5,72,0.00,,,0.00,WUHU216HW,2013-02-07 14:04:00,
2013-02-07 07:05:00,37.4,29.3,29.99,SW,225,2.2,2.5,72,0.00,,,0.00,WUHU216HW,2013-02-07 14:05:00,
2013-02-07 07:07:00,37.4,29.3,29.99,SW,225,1.3,2.5,72,0.00,,,0.00,WUHU216HW,2013-02-07 14:07:00,
2013-02-07 07:09:00,37.4,29.3,29.99,WSW,248,1.8,2.5,72,0.00,,,0.00,WUHU216HW,2013-02-07 14:09:00,
2013-02-07 07:10:00,37.4,29.3,29.99,SW,225,2.0,2.2,72,0.00,,,0.00,WUHU216HW,2013-02-07 14:10:00,
2013-02-07 07:13:00,37.4,29.3,29.99,WSW,248,1.3,2.2,72,0.00,,,0.00,WUHU216HW,2013-02-07 14:13:00,
2013-02-07 07:14:00,37.4,29.3,29.99,SW,225,2.0,2.2,72,0.00,,,0.00,WUHU216HW,2013-02-07 14:14:00,
2013-02-07 07:15:00,37.3,29.1,29.99,SW,225,1.8,2.2,72,0.00,,,0.00,WUHU216HW,2013-02-07 14:15:00,
2013-02-07 07:18:00,37.3,29.1,29.99,SW,225,1.8,2.5,72,0.00,,,0.00,WUHU216HW,2013-02-07 14:18:00,
2013-02-07 07:19:00,37.3,29.1,29.99,SW,225,1.1,2.5,72,0.00,,,0.00,WUHU216HW,2013-02-07 14:19:00,
2013-02-07 07:20:00,37.3,29.1,29.99,SW,225,1.1,2.5,72,0.00,,,0.00,WUHU216HW,2013-02-07 14:20:00,
2013-02-07 07:23:00,37.3,29.1,30.00,WSW,248,1.8,2.5,72,0.00,,,0.00,WUHU216HW,2013-02-07 14:23:00,
2013-02-07 07:24:00,37.3,29.1,30.00,WSW,248,1.3,2.5,72,0.00,,,0.00,WUHU216HW,2013-02-07 14:24:00,
2013-02-07 07:25:00,37.3,29.1,30.00,WSW,248,0.9,2.5,72,0.00,,,0.00,WUHU216HW,2013-02-07 14:25:00,
2013-02-07 07:28:00,37.6,29.8,30.00,SW,225,1.8,2.0,73,0.00,,,0.00,WUHU216HW,2013-02-07 14:28:00,
2013-02-07 07:29:00,37.6,29.8,30.00,SW,225,2.0,2.0,73,0.00,,,0.00,WUHU216HW,2013-02-07 14:29:00,
2013-02-07 07:30:00,37.6,29.8,30.00,WSW,248,1.6,2.0,73,0.00,,,0.00,WUHU216HW,2013-02-07 14:30:00,
2013-02-07 07:33:00,37.8,30.0,30.00,WSW,248,1.6,2.0,73,0.00,,,0.00,WUHU216HW,2013-02-07 14:33:00,
2013-02-07 07:34:00,37.8,30.0,30.00,WSW,248,1.8,2.0,73,0.00,,,0.00,WUHU216HW,2013-02-07 14:34:00,
2013-02-07 07:35:00,37.8,30.0,30.00,WSW,248,1.3,2.0,73,0.00,,,0.00,WUHU216HW,2013-02-07 14:35:00,
2013-02-07 07:36:00,37.8,30.0,30.00,WSW,248,1.1,2.0,73,0.00,,,0.00,WUHU216HW,2013-02-07 14:36:00,
2013-02-07 07:38:00,38.0,30.1,30.00,SW,225,1.3,2.0,73,0.00,,,0.00,WUHU216HW,2013-02-07 14:38:00,
2013-02-07 07:39:00,38.2,30.2,30.00,SW,225,1.1,2.0,73,0.00,,,0.00,WUHU216HW,2013-02-07 14:39:00,
2013-02-07 07:41:00,38.2,30.2,30.00,SW,225,0.9,1.8,73,0.00,,,0.00,WUHU216HW,2013-02-07 14:41:00,
2013-02-07 07:43:00,38.3,30.4,30.00,SW,225,0.4,1.8,73,0.00,,,0.00,WUHU216HW,2013-02-07 14:43:00,
2013-02-07 07:44:00,38.5,31.0,30.00,SW,225,1.1,1.8,74,0.00,,,0.00,WUHU216HW,2013-02-07 14:44:00,
2013-02-07 07:46:00,38.5,31.0,30.00,WSW,248,1.6,1.6,74,0.00,,,0.00,WUHU216HW,2013-02-07 14:46:00,
2013-02-07 07:48:00,38.9,31.2,30.00,WSW,248,1.3,1.8,74,0.00,,,0.00,WUHU216HW,2013-02-07 14:48:00,
2013-02-07 07:49:00,39.2,31.6,30.00,WSW,248,1.1,1.8,74,0.00,,,0.00,WUHU216HW,2013-02-07 14:49:00,
2013-02-07 07:51:00,39.2,32.0,30.00,SW,225,1.1,1.8,75,0.00,,,0.00,WUHU216HW,2013-02-07 14:51:00,
2013-02-07 07:53:00,39.8,32.1,30.00,SW,225,0.4,1.8,74,0.00,,,0.00,WUHU216HW,2013-02-07 14:53:00,
2013-02-07 07:54:00,40.0,32.3,30.01,SW,225,1.1,1.8,74,0.00,,,0.00,WUHU216HW,2013-02-07 14:54:00,
2013-02-07 07:56:00,40.1,32.5,30.01,SW,225,0.7,1.8,74,0.00,,,0.00,WUHU216HW,2013-02-07 14:56:00,
2013-02-07 07:58:00,40.5,32.9,30.01,WSW,248,1.1,1.6,74,0.00,,,0.00,WUHU216HW,2013-02-07 14:58:00,
2013-02-07 08:00:00,40.7,33.0,30.01,WSW,248,0.9,1.3,74,0.00,,,0.00,WUHU216HW,2013-02-07 15:00:00,
2013-02-07 08:01:00,41.0,33.3,30.01,SW,225,1.3,1.3,74,0.00,,,0.00,WUHU216HW,2013-02-07 15:01:00,
2013-02-07 08:02:00,41.2,33.5,30.01,SW,225,1.1,1.3,74,0.00,,,0.00,WUHU216HW,2013-02-07 15:02:00,
2013-02-07 08:04:00,41.4,33.7,30.01,WSW,248,1.3,1.3,74,0.00,,,0.00,WUHU216HW,2013-02-07 15:04:00,
2013-02-07 08:05:00,41.6,33.8,30.01,WSW,248,1.8,1.8,74,0.00,,,0.00,WUHU216HW,2013-02-07 15:05:00,
2013-02-07 08:06:00,41.8,34.0,30.01,WSW,248,1.8,1.8,74,0.00,,,0.00,WUHU216HW,2013-02-07 15:06:00,
2013-02-07 08:07:00,41.9,34.2,30.01,WSW,248,1.8,1.8,74,0.00,,,0.00,WUHU216HW,2013-02-07 15:07:00,
2013-02-07 08:09:00,42.1,34.1,30.01,WSW,248,1.6,2.0,73,0.00,,,0.00,WUHU216HW,2013-02-07 15:09:00,
2013-02-07 08:10:00,42.5,34.5,30.01,WSW,248,1.8,2.0,73,0.00,,,0.00,WUHU216HW,2013-02-07 15:10:00,
2013-02-07 08:12:00,42.7,34.3,30.01,WSW,248,1.3,2.0,72,0.00,,,0.00,WUHU216HW,2013-02-07 15:12:00,
2013-02-07 08:14:00,43.0,34.7,30.01,WSW,248,0.2,2.0,72,0.00,,,0.00,WUHU216HW,2013-02-07 15:14:00,
2013-02-07 08:15:00,43.2,34.8,30.02,WSW,248,0.0,2.0,72,0.00,,,0.00,WUHU216HW,2013-02-07 15:15:00,
2013-02-07 08:17:00,43.6,34.8,30.02,SW,225,0.0,2.0,71,0.00,,,0.00,WUHU216HW,2013-02-07 15:17:00,
2013-02-07 08:18:00,43.6,34.8,30.02,WSW,248,0.0,2.0,71,0.00,,,0.00,WUHU216HW,2013-02-07 15:18:00,
2013-02-07 08:19:00,43.9,35.2,30.02,WSW,248,1.1,1.8,71,0.00,,,0.00,WUHU216HW,2013-02-07 15:19:00,
2013-02-07 08:20:00,43.9,35.2,30.02,WSW,248,0.4,1.8,71,0.00,,,0.00,WUHU216HW,2013-02-07 15:20:00,
2013-02-07 08:22:00,44.3,35.1,30.02,WSW,248,0.9,1.1,70,0.00,,,0.00,WUHU216HW,2013-02-07 15:22:00,
2013-02-07 08:24:00,44.5,34.9,30.02,WSW,248,0.7,1.3,69,0.00,,,0.00,WUHU216HW,2013-02-07 15:24:00,
2013-02-07 08:25:00,44.6,35.1,30.02,SW,225,0.0,1.3,69,0.00,,,0.00,WUHU216HW,2013-02-07 15:25:00,
2013-02-07 08:27:00,45.0,35.5,30.02,WSW,248,0.0,1.3,69,0.00,,,0.00,WUHU216HW,2013-02-07 15:27:00,
2013-02-07 08:28:00,45.0,35.5,30.02,WSW,248,0.0,1.3,69,0.00,,,0.00,WUHU216HW,2013-02-07 15:28:00,
2013-02-07 08:29:00,45.0,35.5,30.02,WSW,248,0.0,1.3,69,0.00,,,0.00,WUHU216HW,2013-02-07 15:29:00,
2013-02-07 08:30:00,45.4,35.4,30.02,WSW,248,0.0,1.3,68,0.00,,,0.00,WUHU216HW,2013-02-07 15:30:00,
2013-02-07 08:32:00,45.5,35.6,30.02,SSW,203,0.0,1.3,68,0.00,,,0.00,WUHU216HW,2013-02-07 15:32:00,
2013-02-07 08:33:00,45.5,35.6,30.02,SSW,203,0.0,1.3,68,0.00,,,0.00,WUHU216HW,2013-02-07 15:33:00,
2013-02-07 08:34:00,45.7,35.7,30.02,SSW,203,0.0,0.2,68,0.00,,,0.00,WUHU216HW,2013-02-07 15:34:00,
2013-02-07 08:35:00,45.9,35.9,30.02,SSE,158,0.0,0.0,68,0.00,,,0.00,WUHU216HW,2013-02-07 15:35:00,
2013-02-07 08:37:00,46.1,36.1,30.02,SSE,158,0.4,0.9,68,0.00,,,0.00,WUHU216HW,2013-02-07 15:37:00,
2013-02-07 08:38:00,46.3,36.3,30.02,SSE,158,0.2,0.9,68,0.00,,,0.00,WUHU216HW,2013-02-07 15:38:00,
2013-02-07 08:39:00,46.4,36.1,30.02,ESE,113,0.7,1.3,67,0.00,,,0.00,WUHU216HW,2013-02-07 15:39:00,
2013-02-07 08:40:00,46.4,36.1,30.02,ESE,113,1.1,1.3,67,0.00,,,0.00,WUHU216HW,2013-02-07 15:40:00,
2013-02-07 08:42:00,46.6,36.3,30.02,ESE,113,0.7,1.3,67,0.00,,,0.00,WUHU216HW,2013-02-07 15:42:00,
2013-02-07 08:43:00,46.8,36.5,30.02,NNE,23,0.4,1.3,67,0.00,,,0.00,WUHU216HW,2013-02-07 15:43:00,
2013-02-07 08:44:00,46.8,36.0,30.02,NNE,23,0.0,1.3,66,0.00,,,0.00,WUHU216HW,2013-02-07 15:44:00,
2013-02-07 08:45:00,47.0,36.2,30.02,NNE,23,0.0,1.3,66,0.00,,,0.00,WUHU216HW,2013-02-07 15:45:00,
2013-02-07 08:47:00,47.2,36.0,30.02,NNE,23,0.0,1.3,65,0.00,,,0.00,WUHU216HW,2013-02-07 15:47:00,
2013-02-07 08:48:00,47.2,36.0,30.02,NNE,23,0.0,1.3,65,0.00,,,0.00,WUHU216HW,2013-02-07 15:48:00,
2013-02-07 08:49:00,47.3,36.2,30.02,WNW,293,0.4,1.3,65,0.00,,,0.00,WUHU216HW,2013-02-07 15:49:00,
2013-02-07 08:50:00,47.3,36.2,30.02,West,270,0.4,1.3,65,0.00,,,0.00,WUHU216HW,2013-02-07 15:50:00,
2013-02-07 08:52:00,47.5,35.9,30.02,West,270,0.0,1.3,64,0.00,,,0.00,WUHU216HW,2013-02-07 15:52:00,
2013-02-07 08:53:00,47.7,36.1,30.02,West,270,0.0,1.3,64,0.00,,,0.00,WUHU216HW,2013-02-07 15:53:00,
2013-02-07 08:54:00,47.7,36.1,30.02,WSW,248,0.0,1.3,64,0.00,,,0.00,WUHU216HW,2013-02-07 15:54:00,
2013-02-07 08:55:00,47.9,36.3,30.02,WSW,248,0.0,1.3,64,0.00,,,0.00,WUHU216HW,2013-02-07 15:55:00,
2013-02-07 08:57:00,48.1,36.1,30.02,NNE,23,0.7,1.3,63,0.00,,,0.00,WUHU216HW,2013-02-07 15:57:00,
2013-02-07 08:58:00,48.1,36.1,30.02,NNE,23,0.4,1.3,63,0.00,,,0.00,WUHU216HW,2013-02-07 15:58:00,
2013-02-07 09:00:00,48.4,36.4,30.02,NNE,23,0.7,0.9,63,0.00,,,0.00,WUHU216HW,2013-02-07 16:00:00,
2013-02-07 09:02:00,48.6,35.8,30.02,WSW,248,0.0,2.0,61,0.00,,,0.00,WUHU216HW,2013-02-07 16:02:00,
2013-02-07 09:03:00,48.6,35.8,30.02,West,270,0.2,2.0,61,0.00,,,0.00,WUHU216HW,2013-02-07 16:03:00,
2013-02-07 09:05:00,49.0,36.6,30.03,SW,225,1.3,2.0,62,0.00,,,0.00,WUHU216HW,2013-02-07 16:05:00,
2013-02-07 09:07:00,49.1,36.7,30.02,WSW,248,1.6,2.0,62,0.00,,,0.00,WUHU216HW,2013-02-07 16:07:00,
2013-02-07 09:08:00,49.3,36.5,30.02,WSW,248,0.2,2.0,61,0.00,,,0.00,WUHU216HW,2013-02-07 16:08:00,
2013-02-07 09:10:00,49.3,36.5,30.02,West,270,1.3,2.0,61,0.00,,,0.00,WUHU216HW,2013-02-07 16:10:00,
2013-02-07 09:11:00,49.3,36.5,30.03,NW,315,1.1,2.0,61,0.00,,,0.00,WUHU216HW,2013-02-07 16:11:00,
2013-02-07 09:12:00,49.5,36.3,30.03,West,270,0.0,1.8,60,0.00,,,0.00,WUHU216HW,2013-02-07 16:12:00,
2013-02-07 09:13:00,49.7,36.4,30.03,West,270,0.0,1.8,60,0.00,,,0.00,WUHU216HW,2013-02-07 16:13:00,
2013-02-07 09:15:00,49.7,36.4,30.03,West,270,0.0,1.8,60,0.00,,,0.00,WUHU216HW,2013-02-07 16:15:00,
2013-02-07 09:16:00,49.7,36.4,30.03,NNE,23,0.0,1.8,60,0.00,,,0.00,WUHU216HW,2013-02-07 16:16:00,
2013-02-07 09:18:00,50.0,36.7,30.03,ENE,68,1.8,1.8,60,0.00,,,0.00,WUHU216HW,2013-02-07 16:18:00,
2013-02-07 09:20:00,50.2,36.9,30.03,NNE,23,0.7,1.8,60,0.00,,,0.00,WUHU216HW,2013-02-07 16:20:00,
2013-02-07 09:21:00,50.4,37.1,30.03,NNE,23,1.1,1.8,60,0.00,,,0.00,WUHU216HW,2013-02-07 16:21:00,
2013-02-07 09:23:00,50.6,37.2,30.03,SE,135,1.1,1.8,60,0.00,,,0.00,WUHU216HW,2013-02-07 16:23:00,
2013-02-07 09:24:00,50.8,37.4,30.03,SE,135,0.9,1.8,60,0.00,,,0.00,WUHU216HW,2013-02-07 16:24:00,
2013-02-07 09:25:00,50.8,36.9,30.03,SE,135,1.6,2.0,59,0.00,,,0.00,WUHU216HW,2013-02-07 16:25:00,
2013-02-07 09:26:00,50.9,37.1,30.03,SE,135,0.9,2.0,59,0.00,,,0.00,WUHU216HW,2013-02-07 16:26:00,
2013-02-07 09:28:00,51.1,37.3,30.03,SE,135,0.0,2.0,59,0.00,,,0.00,WUHU216HW,2013-02-07 16:28:00,
2013-02-07 09:29:00,51.1,37.3,30.03,NE,45,2.5,2.5,59,0.00,,,0.00,WUHU216HW,2013-02-07 16:29:00,
2013-02-07 09:30:00,51.3,37.5,30.03,NE,45,1.8,2.5,59,0.00,,,0.00,WUHU216HW,2013-02-07 16:30:00,
2013-02-07 09:31:00,51.5,37.5,30.03,NNE,23,2.5,3.6,59,0.00,,,0.00,WUHU216HW,2013-02-07 16:31:00,
2013-02-07 09:33:00,51.7,37.3,30.03,NE,45,2.0,3.6,58,0.00,,,0.00,WUHU216HW,2013-02-07 16:33:00,
2013-02-07 09:34:00,51.8,37.4,30.03,ENE,68,1.8,3.6,58,0.00,,,0.00,WUHU216HW,2013-02-07 16:34:00,
2013-02-07 09:35:00,51.8,37.4,30.03,ENE,68,1.3,3.6,58,0.00,,,0.00,WUHU216HW,2013-02-07 16:35:00,
2013-02-07 09:36:00,52.0,37.6,30.03,ENE,68,1.1,3.6,58,0.00,,,0.00,WUHU216HW,2013-02-07 16:36:00,
2013-02-07 09:38:00,52.2,37.4,30.03,ESE,113,1.1,3.6,57,0.00,,,0.00,WUHU216HW,2013-02-07 16:38:00,
2013-02-07 09:39:00,52.2,37.4,30.03,East,90,0.9,3.6,57,0.00,,,0.00,WUHU216HW,2013-02-07 16:39:00,
2013-02-07 09:40:00,52.4,37.5,30.03,NE,45,2.5,3.6,57,0.00,,,0.00,WUHU216HW,2013-02-07 16:40:00,
2013-02-07 09:41:00,52.4,37.5,30.03,ENE,68,4.0,4.3,57,0.00,,,0.00,WUHU216HW,2013-02-07 16:41:00,
2013-02-07 09:43:00,52.6,37.3,30.03,NE,45,2.5,4.3,56,0.00,,,0.00,WUHU216HW,2013-02-07 16:43:00,
2013-02-07 09:44:00,52.6,37.3,30.03,ESE,113,2.5,4.3,56,0.00,,,0.00,WUHU216HW,2013-02-07 16:44:00,
2013-02-07 09:45:00,52.7,37.5,30.03,ESE,113,1.3,4.3,56,0.00,,,0.00,WUHU216HW,2013-02-07 16:45:00,
2013-02-07 09:46:00,52.9,37.6,30.03,SE,135,1.3,4.3,56,0.00,,,0.00,WUHU216HW,2013-02-07 16:46:00,
2013-02-07 09:48:00,52.9,37.1,30.03,SE,135,0.0,4.3,55,0.00,,,0.00,WUHU216HW,2013-02-07 16:48:00,
2013-02-07 09:49:00,52.9,37.1,30.03,SE,135,0.0,4.3,55,0.00,,,0.00,WUHU216HW,2013-02-07 16:49:00,
2013-02-07 09:50:00,53.1,37.3,30.03,East,90,2.5,4.3,55,0.00,,,0.00,WUHU216HW,2013-02-07 16:50:00,
2013-02-07 09:51:00,53.1,37.3,30.03,NE,45,3.1,4.0,55,0.00,,,0.00,WUHU216HW,2013-02-07 16:51:00,
2013-02-07 09:54:00,53.3,37.4,30.03,North,0,2.9,3.4,55,0.00,,,0.00,WUHU216HW,2013-02-07 16:54:00,
2013-02-07 09:56:00,53.3,37.0,30.03,North,0,1.3,3.4,54,0.00,,,0.00,WUHU216HW,2013-02-07 16:56:00,
2013-02-07 09:59:00,53.6,36.9,30.03,ENE,68,2.7,3.4,53,0.00,,,0.00,WUHU216HW,2013-02-07 16:59:00,
2013-02-07 10:00:00,53.6,36.4,30.03,NE,45,4.5,4.5,52,0.00,,,0.00,WUHU216HW,2013-02-07 17:00:00,
2013-02-07 10:01:00,53.6,36.4,30.03,NE,45,3.4,4.5,52,0.00,,,0.00,WUHU216HW,2013-02-07 17:01:00,
2013-02-07 10:02:00,53.6,35.9,30.03,NNW,338,1.8,4.5,51,0.00,,,0.00,WUHU216HW,2013-02-07 17:02:00,
2013-02-07 10:04:00,53.8,35.7,30.03,North,0,2.2,4.5,50,0.00,,,0.00,WUHU216HW,2013-02-07 17:04:00,
2013-02-07 10:05:00,53.8,35.7,30.03,NE,45,3.6,4.5,50,0.00,,,0.00,WUHU216HW,2013-02-07 17:05:00,
2013-02-07 10:06:00,53.8,35.7,30.03,ENE,68,4.7,4.7,50,0.00,,,0.00,WUHU216HW,2013-02-07 17:06:00,
2013-02-07 10:07:00,53.8,35.7,30.03,ENE,68,3.8,4.7,50,0.00,,,0.00,WUHU216HW,2013-02-07 17:07:00,
2013-02-07 10:09:00,54.0,36.3,30.03,ENE,68,5.1,5.1,51,0.00,,,0.00,WUHU216HW,2013-02-07 17:09:00,
2013-02-07 10:10:00,54.0,35.8,30.03,NE,45,7.2,7.2,50,0.00,,,0.00,WUHU216HW,2013-02-07 17:10:00,
2013-02-07 10:11:00,54.0,35.8,30.03,ENE,68,5.4,8.1,50,0.00,,,0.00,WUHU216HW,2013-02-07 17:11:00,
2013-02-07 10:12:00,54.0,35.8,30.03,ESE,113,2.7,8.1,50,0.00,,,0.00,WUHU216HW,2013-02-07 17:12:00,
2013-02-07 10:15:00,54.0,34.7,30.03,NNW,338,2.0,8.1,48,0.00,,,0.00,WUHU216HW,2013-02-07 17:15:00,
2013-02-07 10:16:00,54.0,34.7,30.03,West,270,1.1,8.1,48,0.00,,,0.00,WUHU216HW,2013-02-07 17:16:00,
2013-02-07 10:17:00,54.0,35.2,30.03,North,0,0.9,8.1,49,0.00,,,0.00,WUHU216HW,2013-02-07 17:17:00,
2013-02-07 10:20:00,54.0,35.2,30.03,NE,45,4.7,8.1,49,0.00,,,0.00,WUHU216HW,2013-02-07 17:20:00,
2013-02-07 10:22:00,54.2,34.8,30.03,NNE,23,6.9,7.4,48,0.00,,,0.00,WUHU216HW,2013-02-07 17:22:00,
2013-02-07 10:25:00,54.2,34.3,30.03,North,0,4.5,7.6,47,0.00,,,0.00,WUHU216HW,2013-02-07 17:25:00,
2013-02-07 10:27:00,54.4,35.0,30.03,East,90,2.2,7.6,48,0.00,,,0.00,WUHU216HW,2013-02-07 17:27:00,
2013-02-07 10:28:00,54.4,35.0,30.03,NE,45,2.7,7.6,48,0.00,,,0.00,WUHU216HW,2013-02-07 17:28:00,
2013-02-07 10:30:00,54.4,35.0,30.04,ENE,68,3.6,7.6,48,0.00,,,0.00,WUHU216HW,2013-02-07 17:30:00,
2013-02-07 10:32:00,54.5,35.7,30.03,SSE,158,1.6,7.6,49,0.00,,,0.00,WUHU216HW,2013-02-07 17:32:00,
2013-02-07 10:33:00,54.5,35.7,30.03,SSE,158,1.6,7.4,49,0.00,,,0.00,WUHU216HW,2013-02-07 17:33:00,
2013-02-07 10:35:00,54.7,35.3,30.03,NE,45,5.4,5.4,48,0.00,,,0.00,WUHU216HW,2013-02-07 17:35:00,
2013-02-07 10:37:00,54.9,34.9,30.03,North,0,4.5,5.4,47,0.00,,,0.00,WUHU216HW,2013-02-07 17:37:00,
2013-02-07 10:38:00,54.9,34.9,30.03,NNW,338,5.4,7.4,47,0.00,,,0.00,WUHU216HW,2013-02-07 17:38:00,
2013-02-07 10:40:00,54.9,34.4,30.03,NNE,23,1.3,7.4,46,0.00,,,0.00,WUHU216HW,2013-02-07 17:40:00,
2013-02-07 10:41:00,55.1,35.1,30.03,NE,45,3.1,7.4,47,0.00,,,0.00,WUHU216HW,2013-02-07 17:41:00,
2013-02-07 10:43:00,55.1,35.1,30.03,North,0,2.5,7.4,47,0.00,,,0.00,WUHU216HW,2013-02-07 17:43:00,
2013-02-07 10:45:00,55.1,34.6,30.03,North,0,3.4,7.4,46,0.00,,,0.00,WUHU216HW,2013-02-07 17:45:00,
2013-02-07 10:46:00,55.3,34.7,30.03,North,0,4.7,7.4,46,0.00,,,0.00,WUHU216HW,2013-02-07 17:46:00,
2013-02-07 10:48:00,55.3,34.1,30.03,North,0,0.4,7.4,45,0.00,,,0.00,WUHU216HW,2013-02-07 17:48:00,
2013-02-07 10:50:00,55.1,34.6,30.03,NNE,23,1.8,6.0,46,0.00,,,0.00,WUHU216HW,2013-02-07 17:50:00,
2013-02-07 10:51:00,55.1,34.6,30.03,NNE,23,3.4,6.0,46,0.00,,,0.00,WUHU216HW,2013-02-07 17:51:00,
2013-02-07 10:53:00,55.1,34.6,30.03,NE,45,2.5,6.0,46,0.00,,,0.00,WUHU216HW,2013-02-07 17:53:00,
2013-02-07 10:55:00,55.3,34.7,30.03,NNE,23,4.0,5.4,46,0.00,,,0.00,WUHU216HW,2013-02-07 17:55:00,
2013-02-07 10:56:00,55.4,34.8,30.03,North,0,1.8,5.4,46,0.00,,,0.00,WUHU216HW,2013-02-07 17:56:00,
2013-02-07 10:58:00,55.4,34.8,30.03,ENE,68,3.4,5.4,46,0.00,,,0.00,WUHU216HW,2013-02-07 17:58:00,
2013-02-07 11:01:00,55.8,35.2,30.03,ESE,113,2.5,5.4,46,0.00,,,0.00,WUHU216HW,2013-02-07 18:01:00,
2013-02-07 11:03:00,55.8,35.2,30.03,East,90,2.9,5.4,46,0.00,,,0.00,WUHU216HW,2013-02-07 18:03:00,
2013-02-07 11:04:00,56.0,35.4,30.03,ESE,113,3.4,5.4,46,0.00,,,0.00,WUHU216HW,2013-02-07 18:04:00,
2013-02-07 11:06:00,56.2,35.6,30.03,SE,135,1.8,5.6,46,0.00,,,0.00,WUHU216HW,2013-02-07 18:06:00,
2013-02-07 11:07:00,56.2,35.6,30.03,NE,45,3.8,5.6,46,0.00,,,0.00,WUHU216HW,2013-02-07 18:07:00,
2013-02-07 11:08:00,56.3,35.7,30.03,NNE,23,2.2,5.6,46,0.00,,,0.00,WUHU216HW,2013-02-07 18:08:00,
2013-02-07 11:09:00,56.3,35.1,30.03,NE,45,5.6,5.6,45,0.00,,,0.00,WUHU216HW,2013-02-07 18:09:00,
2013-02-07 11:11:00,56.5,35.3,30.03,NNE,23,4.3,5.6,45,0.00,,,0.00,WUHU216HW,2013-02-07 18:11:00,
2013-02-07 11:12:00,56.5,35.3,30.03,NE,45,4.7,5.6,45,0.00,,,0.00,WUHU216HW,2013-02-07 18:12:00,
2013-02-07 11:14:00,56.5,35.3,30.03,ESE,113,1.1,5.6,45,0.00,,,0.00,WUHU216HW,2013-02-07 18:14:00,
2013-02-07 11:16:00,56.7,35.5,30.03,ESE,113,3.1,5.6,45,0.00,,,0.00,WUHU216HW,2013-02-07 18:16:00,
2013-02-07 11:17:00,56.7,35.5,30.03,ENE,68,2.5,5.6,45,0.00,,,0.00,WUHU216HW,2013-02-07 18:17:00,
2013-02-07 11:19:00,56.9,35.6,30.02,ENE,68,2.2,5.1,45,0.00,,,0.00,WUHU216HW,2013-02-07 18:19:00,
2013-02-07 11:21:00,56.9,35.6,30.03,ESE,113,2.2,4.7,45,0.00,,,0.00,WUHU216HW,2013-02-07 18:21:00,
2013-02-07 11:22:00,57.1,35.8,30.03,East,90,8.5,8.5,45,0.00,,,0.00,WUHU216HW,2013-02-07 18:22:00,
2013-02-07 11:24:00,57.1,35.3,30.03,ESE,113,6.3,8.7,44,0.00,,,0.00,WUHU216HW,2013-02-07 18:24:00,
2013-02-07 11:26:00,57.2,34.8,30.03,NE,45,2.7,8.7,43,0.00,,,0.00,WUHU216HW,2013-02-07 18:26:00,
2013-02-07 11:27:00,57.2,34.8,30.02,ENE,68,4.7,8.7,43,0.00,,,0.00,WUHU216HW,2013-02-07 18:27:00,
2013-02-07 11:29:00,57.2,34.8,30.02,ENE,68,4.7,8.7,43,0.00,,,0.00,WUHU216HW,2013-02-07 18:29:00,
2013-02-07 11:31:00,57.2,34.8,30.02,NE,45,3.1,8.7,43,0.00,,,0.00,WUHU216HW,2013-02-07 18:31:00,
2013-02-07 11:33:00,57.2,34.3,30.02,West,270,1.8,8.7,42,0.00,,,0.00,WUHU216HW,2013-02-07 18:33:00,
2013-02-07 11:34:00,57.2,34.3,30.02,SE,135,4.0,6.7,42,0.00,,,0.00,WUHU216HW,2013-02-07 18:34:00,
2013-02-07 11:36:00,57.2,34.8,30.02,ESE,113,3.4,6.7,43,0.00,,,0.00,WUHU216HW,2013-02-07 18:36:00,
2013-02-07 11:38:00,57.2,34.8,30.02,SE,135,5.1,5.1,43,0.00,,,0.00,WUHU216HW,2013-02-07 18:38:00,
2013-02-07 11:39:00,57.4,35.0,30.02,NE,45,2.2,5.1,43,0.00,,,0.00,WUHU216HW,2013-02-07 18:39:00,
2013-02-07 11:40:00,57.4,35.0,30.02,NE,45,2.5,5.1,43,0.00,,,0.00,WUHU216HW,2013-02-07 18:40:00,
2013-02-07 11:41:00,57.6,34.6,30.02,East,90,5.4,7.2,42,0.00,,,0.00,WUHU216HW,2013-02-07 18:41:00,
2013-02-07 11:43:00,57.6,34.6,30.02,NE,45,4.0,7.2,42,0.00,,,0.00,WUHU216HW,2013-02-07 18:43:00,
2013-02-07 11:44:00,57.8,34.7,30.02,ESE,113,4.0,7.2,42,0.00,,,0.00,WUHU216HW,2013-02-07 18:44:00,
2013-02-07 11:45:00,57.6,34.6,30.02,NE,45,3.6,7.2,42,0.00,,,0.00,WUHU216HW,2013-02-07 18:45:00,
2013-02-07 11:47:00,57.8,34.2,30.02,NW,315,1.1,7.2,41,0.00,,,0.00,WUHU216HW,2013-02-07 18:47:00,
2013-02-07 11:48:00,57.6,34.0,30.02,ENE,68,0.9,7.2,41,0.00,,,0.00,WUHU216HW,2013-02-07 18:48:00,
2013-02-07 11:49:00,57.6,34.0,30.02,ESE,113,5.8,7.2,41,0.00,,,0.00,WUHU216HW,2013-02-07 18:49:00,
2013-02-07 11:50:00,57.6,34.0,30.02,ENE,68,6.3,7.2,41,0.00,,,0.00,WUHU216HW,2013-02-07 18:50:00,
2013-02-07 11:52:00,57.6,34.0,30.02,NNE,23,4.7,7.2,41,0.00,,,0.00,WUHU216HW,2013-02-07 18:52:00,
2013-02-07 11:53:00,57.8,34.2,30.02,North,0,3.6,6.3,41,0.00,,,0.00,WUHU216HW,2013-02-07 18:53:00,
2013-02-07 11:54:00,57.8,34.2,30.02,SE,135,4.3,6.3,41,0.00,,,0.00,WUHU216HW,2013-02-07 18:54:00,
2013-02-07 11:55:00,57.8,34.2,30.02,East,90,3.1,6.3,41,0.00,,,0.00,WUHU216HW,2013-02-07 18:55:00,
2013-02-07 11:57:00,57.8,34.2,30.02,NNE,23,1.8,6.3,41,0.00,,,0.00,WUHU216HW,2013-02-07 18:57:00,
2013-02-07 11:58:00,57.8,34.2,30.02,ESE,113,5.8,6.3,41,0.00,,,0.00,WUHU216HW,2013-02-07 18:58:00,
2013-02-07 12:00:00,58.0,34.4,30.01,ESE,113,2.7,6.3,41,0.00,,,0.00,WUHU216HW,2013-02-07 19:00:00,
2013-02-07 12:02:00,58.1,34.5,30.01,North,0,2.9,5.8,41,0.00,,,0.00,WUHU216HW,2013-02-07 19:02:00,
2013-02-07 12:03:00,58.0,33.8,30.01,NNW,338,0.2,5.8,40,0.00,,,0.00,WUHU216HW,2013-02-07 19:03:00,
2013-02-07 12:05:00,58.1,33.9,30.01,WNW,293,1.6,5.8,40,0.00,,,0.00,WUHU216HW,2013-02-07 19:05:00,
2013-02-07 12:07:00,58.0,33.0,30.01,North,0,2.5,5.8,39,0.00,,,0.00,WUHU216HW,2013-02-07 19:07:00,
2013-02-07 12:08:00,58.0,33.8,30.01,NNW,338,2.5,5.8,40,0.00,,,0.00,WUHU216HW,2013-02-07 19:08:00,
2013-02-07 12:10:00,58.1,33.2,30.01,NE,45,2.2,5.1,39,0.00,,,0.00,WUHU216HW,2013-02-07 19:10:00,
2013-02-07 12:13:00,58.1,33.2,30.00,NNE,23,3.4,5.4,39,0.00,,,0.00,WUHU216HW,2013-02-07 19:13:00,
2013-02-07 12:15:00,58.3,32.7,30.00,North,0,5.4,5.8,38,0.00,,,0.00,WUHU216HW,2013-02-07 19:15:00,
2013-02-07 12:18:00,58.3,32.7,30.00,NE,45,3.4,7.4,38,0.00,,,0.00,WUHU216HW,2013-02-07 19:18:00,
2013-02-07 12:20:00,58.5,33.6,30.00,SE,135,1.6,7.4,39,0.00,,,0.00,WUHU216HW,2013-02-07 19:20:00,
2013-02-07 12:23:00,58.7,33.8,30.00,SSW,203,2.0,7.4,39,0.00,,,0.00,WUHU216HW,2013-02-07 19:23:00,
2013-02-07 12:25:00,58.9,33.8,29.99,SE,135,6.0,7.4,39,0.00,,,0.00,WUHU216HW,2013-02-07 19:25:00,
2013-02-07 12:28:00,59.4,34.4,29.99,SSE,158,5.4,6.5,39,0.00,,,0.00,WUHU216HW,2013-02-07 19:28:00,
2013-02-07 12:30:00,59.6,34.6,29.99,SE,135,4.0,6.5,39,0.00,,,0.00,WUHU216HW,2013-02-07 19:30:00,
2013-02-07 12:33:00,59.8,34.7,29.99,ESE,113,2.7,6.5,39,0.00,,,0.00,WUHU216HW,2013-02-07 19:33:00,
2013-02-07 12:35:00,59.8,34.7,29.99,East,90,6.3,7.6,39,0.00,,,0.00,WUHU216HW,2013-02-07 19:35:00,
2013-02-07 12:36:00,59.8,34.7,29.99,ESE,113,7.4,7.6,39,0.00,,,0.00,WUHU216HW,2013-02-07 19:36:00,
2013-02-07 12:38:00,59.9,34.1,29.99,East,90,3.8,7.6,38,0.00,,,0.00,WUHU216HW,2013-02-07 19:38:00,
2013-02-07 12:39:00,59.9,34.1,29.99,ENE,68,3.4,7.6,38,0.00,,,0.00,WUHU216HW,2013-02-07 19:39:00,
2013-02-07 12:40:00,59.9,34.1,29.99,SSE,158,3.8,7.6,38,0.00,,,0.00,WUHU216HW,2013-02-07 19:40:00,
2013-02-07 12:41:00,59.9,34.1,29.99,SSE,158,4.7,7.6,38,0.00,,,0.00,WUHU216HW,2013-02-07 19:41:00,
2013-02-07 12:43:00,60.1,34.3,29.99,ESE,113,2.2,7.6,38,0.00,,,0.00,WUHU216HW,2013-02-07 19:43:00,
2013-02-07 12:44:00,60.1,34.3,29.99,WSW,248,1.1,7.6,38,0.00,,,0.00,WUHU216HW,2013-02-07 19:44:00,
2013-02-07 12:45:00,60.1,33.6,29.99,ENE,68,2.9,7.4,37,0.00,,,0.00,WUHU216HW,2013-02-07 19:45:00,
2013-02-07 12:46:00,60.1,33.6,29.99,East,90,3.4,7.4,37,0.00,,,0.00,WUHU216HW,2013-02-07 19:46:00,
2013-02-07 12:48:00,60.3,33.8,30.00,SE,135,2.7,5.1,37,0.00,,,0.00,WUHU216HW,2013-02-07 19:48:00,
2013-02-07 12:49:00,60.5,33.9,30.00,SE,135,5.4,5.4,37,0.00,,,0.00,WUHU216HW,2013-02-07 19:49:00,
2013-02-07 12:50:00,60.5,33.9,30.00,East,90,5.4,5.8,37,0.00,,,0.00,WUHU216HW,2013-02-07 19:50:00,
2013-02-07 12:51:00,60.5,33.9,30.00,ESE,113,4.7,5.8,37,0.00,,,0.00,WUHU216HW,2013-02-07 19:51:00,
2013-02-07 12:53:00,60.7,34.0,30.00,ENE,68,6.9,6.9,37,0.00,,,0.00,WUHU216HW,2013-02-07 19:53:00,
2013-02-07 12:54:00,60.7,33.3,30.00,NE,45,5.4,6.9,36,0.00,,,0.00,WUHU216HW,2013-02-07 19:54:00,
2013-02-07 12:55:00,60.7,33.3,30.00,South,180,6.0,6.9,36,0.00,,,0.00,WUHU216HW,2013-02-07 19:55:00,
2013-02-07 12:56:00,60.7,33.3,30.00,South,180,3.1,6.9,36,0.00,,,0.00,WUHU216HW,2013-02-07 19:56:00,
2013-02-07 12:58:00,60.8,33.5,30.00,South,180,1.3,6.9,36,0.00,,,0.00,WUHU216HW,2013-02-07 19:58:00,
2013-02-07 12:59:00,60.8,33.5,30.00,SSW,203,6.3,6.9,36,0.00,,,0.00,WUHU216HW,2013-02-07 19:59:00,
2013-02-07 13:01:00,60.8,33.5,30.00,ESE,113,5.4,6.9,36,0.00,,,0.00,WUHU216HW,2013-02-07 20:01:00,
2013-02-07 13:02:00,60.8,33.5,30.00,ESE,113,4.0,6.9,36,0.00,,,0.00,WUHU216HW,2013-02-07 20:02:00,
2013-02-07 13:03:00,60.8,33.5,30.00,ESE,113,1.8,6.3,36,0.00,,,0.00,WUHU216HW,2013-02-07 20:03:00,
2013-02-07 13:04:00,60.8,32.8,30.00,SW,225,1.1,6.3,35,0.00,,,0.00,WUHU216HW,2013-02-07 20:04:00,
2013-02-07 13:06:00,61.0,33.7,30.00,ESE,113,4.7,6.3,36,0.00,,,0.00,WUHU216HW,2013-02-07 20:06:00,
2013-02-07 13:07:00,61.0,33.7,30.00,SSE,158,3.1,6.3,36,0.00,,,0.00,WUHU216HW,2013-02-07 20:07:00,
2013-02-07 13:08:00,61.2,33.9,30.00,SSE,158,7.2,7.2,36,0.00,,,0.00,WUHU216HW,2013-02-07 20:08:00,
2013-02-07 13:09:00,61.2,33.9,30.00,ESE,113,4.7,7.2,36,0.00,,,0.00,WUHU216HW,2013-02-07 20:09:00,
2013-02-07 13:11:00,61.4,33.9,30.00,ESE,113,4.9,7.2,36,0.00,,,0.00,WUHU216HW,2013-02-07 20:11:00,
2013-02-07 13:12:00,61.6,34.1,30.00,SSE,158,4.3,7.2,36,0.00,,,0.00,WUHU216HW,2013-02-07 20:12:00,
2013-02-07 13:14:00,61.6,34.1,29.99,South,180,2.7,7.2,36,0.00,,,0.00,WUHU216HW,2013-02-07 20:14:00,
2013-02-07 13:16:00,61.7,34.3,29.99,SE,135,2.9,7.2,36,0.00,,,0.00,WUHU216HW,2013-02-07 20:16:00,
2013-02-07 13:17:00,61.9,33.8,29.99,ESE,113,4.5,7.2,35,0.00,,,0.00,WUHU216HW,2013-02-07 20:17:00,
2013-02-07 13:19:00,62.1,34.7,29.99,SSW,203,1.1,6.9,36,0.00,,,0.00,WUHU216HW,2013-02-07 20:19:00,
2013-02-07 13:21:00,62.1,33.2,29.99,SW,225,1.8,5.4,34,0.00,,,0.00,WUHU216HW,2013-02-07 20:21:00,
2013-02-07 13:22:00,62.1,33.2,29.99,ESE,113,1.8,5.4,34,0.00,,,0.00,WUHU216HW,2013-02-07 20:22:00,
2013-02-07 13:24:00,62.1,33.2,29.98,East,90,4.0,5.8,34,0.00,,,0.00,WUHU216HW,2013-02-07 20:24:00,
2013-02-07 13:26:00,62.1,33.2,29.99,NE,45,1.8,5.8,34,0.00,,,0.00,WUHU216HW,2013-02-07 20:26:00,
2013-02-07 13:27:00,62.3,33.3,29.98,SE,135,4.0,5.8,34,0.00,,,0.00,WUHU216HW,2013-02-07 20:27:00,
2013-02-07 13:29:00,62.3,33.3,29.98,South,180,3.4,5.8,34,0.00,,,0.00,WUHU216HW,2013-02-07 20:29:00,
2013-02-07 13:30:00,62.3,33.3,29.98,South,180,2.9,5.8,34,0.00,,,0.00,WUHU216HW,2013-02-07 20:30:00,
2013-02-07 13:31:00,62.3,33.3,29.98,SSE,158,4.5,5.8,34,0.00,,,0.00,WUHU216HW,2013-02-07 20:31:00,
2013-02-07 13:32:00,62.5,33.5,29.98,SE,135,3.8,5.8,34,0.00,,,0.00,WUHU216HW,2013-02-07 20:32:00,
2013-02-07 13:34:00,62.5,33.5,29.98,SE,135,4.7,5.1,34,0.00,,,0.00,WUHU216HW,2013-02-07 20:34:00,
2013-02-07 13:35:00,62.6,33.7,29.98,ESE,113,4.7,5.1,34,0.00,,,0.00,WUHU216HW,2013-02-07 20:35:00,
2013-02-07 13:36:00,62.6,32.9,29.98,South,180,4.7,5.8,33,0.00,,,0.00,WUHU216HW,2013-02-07 20:36:00,
2013-02-07 13:37:00,62.6,32.9,29.98,South,180,1.8,5.8,33,0.00,,,0.00,WUHU216HW,2013-02-07 20:37:00,
2013-02-07 13:39:00,62.8,33.1,29.98,SE,135,1.1,6.3,33,0.00,,,0.00,WUHU216HW,2013-02-07 20:39:00,
2013-02-07 13:40:00,62.8,33.1,29.98,WSW,248,0.9,6.3,33,0.00,,,0.00,WUHU216HW,2013-02-07 20:40:00,
2013-02-07 13:41:00,62.8,33.1,29.98,SE,135,11.0,11.0,33,0.00,,,0.00,WUHU216HW,2013-02-07 20:41:00,
2013-02-07 13:42:00,62.8,33.1,29.97,SSE,158,2.0,11.0,33,0.00,,,0.00,WUHU216HW,2013-02-07 20:42:00,
2013-02-07 13:44:00,62.8,33.1,29.97,NE,45,4.0,11.0,33,0.00,,,0.00,WUHU216HW,2013-02-07 20:44:00,
2013-02-07 13:45:00,62.8,32.4,29.97,ENE,68,2.7,11.0,32,0.00,,,0.00,WUHU216HW,2013-02-07 20:45:00,
2013-02-07 13:46:00,62.8,33.1,29.97,ESE,113,5.4,11.0,33,0.00,,,0.00,WUHU216HW,2013-02-07 20:46:00,
2013-02-07 13:48:00,62.8,33.1,29.97,NE,45,1.8,11.0,33,0.00,,,0.00,WUHU216HW,2013-02-07 20:48:00,
2013-02-07 13:49:00,63.0,32.6,29.97,SE,135,6.5,11.0,32,0.00,,,0.00,WUHU216HW,2013-02-07 20:49:00,
2013-02-07 13:50:00,62.8,32.4,29.97,ESE,113,6.3,11.0,32,0.00,,,0.00,WUHU216HW,2013-02-07 20:50:00,
2013-02-07 13:51:00,62.8,32.4,29.97,East,90,6.0,9.6,32,0.00,,,0.00,WUHU216HW,2013-02-07 20:51:00,
2013-02-07 13:53:00,62.8,32.4,29.97,ESE,113,6.9,9.6,32,0.00,,,0.00,WUHU216HW,2013-02-07 20:53:00,
2013-02-07 13:54:00,63.0,32.6,29.97,East,90,4.9,9.6,32,0.00,,,0.00,WUHU216HW,2013-02-07 20:54:00,
2013-02-07 13:55:00,63.0,32.6,29.97,ESE,113,2.9,9.6,32,0.00,,,0.00,WUHU216HW,2013-02-07 20:55:00,
2013-02-07 13:56:00,63.0,32.6,29.97,East,90,0.4,9.6,32,0.00,,,0.00,WUHU216HW,2013-02-07 20:56:00,
2013-02-07 13:58:00,63.0,32.6,29.97,SE,135,1.3,9.6,32,0.00,,,0.00,WUHU216HW,2013-02-07 20:58:00,
2013-02-07 13:59:00,63.0,32.6,29.97,ESE,113,3.8,8.5,32,0.00,,,0.00,WUHU216HW,2013-02-07 20:59:00,
2013-02-07 14:01:00,63.0,31.9,29.97,ENE,68,9.2,9.2,31,0.00,,,0.00,WUHU216HW,2013-02-07 21:01:00,
2013-02-07 14:03:00,63.0,31.2,29.97,East,90,4.5,9.2,30,0.00,,,0.00,WUHU216HW,2013-02-07 21:03:00,
2013-02-07 14:04:00,63.0,31.9,29.97,SSW,203,4.3,9.2,31,0.00,,,0.00,WUHU216HW,2013-02-07 21:04:00,
2013-02-07 14:06:00,63.0,31.9,29.97,SSE,158,3.4,9.2,31,0.00,,,0.00,WUHU216HW,2013-02-07 21:06:00,
2013-02-07 14:07:00,63.0,31.9,29.97,SSE,158,3.1,9.2,31,0.00,,,0.00,WUHU216HW,2013-02-07 21:07:00,
2013-02-07 14:08:00,63.0,31.9,29.96,South,180,3.4,9.2,31,0.00,,,0.00,WUHU216HW,2013-02-07 21:08:00,
2013-02-07 14:09:00,63.0,31.9,29.97,South,180,4.9,9.2,31,0.00,,,0.00,WUHU216HW,2013-02-07 21:09:00,
2013-02-07 14:11:00,63.0,31.9,29.97,SSE,158,1.3,9.2,31,0.00,,,0.00,WUHU216HW,2013-02-07 21:11:00,
2013-02-07 14:12:00,63.2,32.0,29.97,ESE,113,7.6,7.6,31,0.00,,,0.00,WUHU216HW,2013-02-07 21:12:00,
2013-02-07 14:13:00,63.4,32.1,29.96,ESE,113,8.7,9.6,31,0.00,,,0.00,WUHU216HW,2013-02-07 21:13:00,
2013-02-07 14:15:00,63.4,32.1,29.96,ESE,113,2.9,9.6,31,0.00,,,0.00,WUHU216HW,2013-02-07 21:15:00,
2013-02-07 14:16:00,63.4,32.1,29.96,ESE,113,3.4,9.6,31,0.00,,,0.00,WUHU216HW,2013-02-07 21:16:00,
2013-02-07 14:17:00,63.4,32.1,29.96,ESE,113,2.0,9.6,31,0.00,,,0.00,WUHU216HW,2013-02-07 21:17:00,
2013-02-07 14:18:00,63.4,32.1,29.96,ENE,68,4.5,9.6,31,0.00,,,0.00,WUHU216HW,2013-02-07 21:18:00,
2013-02-07 14:20:00,63.4,31.4,29.96,ESE,113,8.9,10.5,30,0.00,,,0.00,WUHU216HW,2013-02-07 21:20:00,
2013-02-07 14:21:00,63.4,31.4,29.96,SSE,158,7.6,10.5,30,0.00,,,0.00,WUHU216HW,2013-02-07 21:21:00,
2013-02-07 14:22:00,63.4,31.4,29.96,SE,135,3.4,10.5,30,0.00,,,0.00,WUHU216HW,2013-02-07 21:22:00,
2013-02-07 14:24:00,63.4,31.4,29.96,NE,45,3.4,10.5,30,0.00,,,0.00,WUHU216HW,2013-02-07 21:24:00,
2013-02-07 14:25:00,63.5,31.6,29.96,ENE,68,2.0,10.5,30,0.00,,,0.00,WUHU216HW,2013-02-07 21:25:00,
2013-02-07 14:26:00,63.5,31.6,29.96,East,90,2.0,10.5,30,0.00,,,0.00,WUHU216HW,2013-02-07 21:26:00,
2013-02-07 14:27:00,63.7,31.8,29.96,ESE,113,2.5,10.5,30,0.00,,,0.00,WUHU216HW,2013-02-07 21:27:00,
2013-02-07 14:29:00,63.7,31.8,29.96,East,90,4.0,10.5,30,0.00,,,0.00,WUHU216HW,2013-02-07 21:29:00,
2013-02-07 14:30:00,63.7,31.8,29.96,West,270,1.6,8.9,30,0.00,,,0.00,WUHU216HW,2013-02-07 21:30:00,
2013-02-07 14:31:00,63.7,31.8,29.96,SE,135,2.7,7.6,30,0.00,,,0.00,WUHU216HW,2013-02-07 21:31:00,
2013-02-07 14:32:00,63.7,30.8,29.96,ESE,113,2.0,5.6,29,0.00,,,0.00,WUHU216HW,2013-02-07 21:32:00,
2013-02-07 14:34:00,63.7,30.8,29.96,ESE,113,7.6,7.6,29,0.00,,,0.00,WUHU216HW,2013-02-07 21:34:00,
2013-02-07 14:35:00,63.9,31.0,29.96,SSE,158,6.7,8.1,29,0.00,,,0.00,WUHU216HW,2013-02-07 21:35:00,
2013-02-07 14:36:00,64.1,31.1,29.96,ESE,113,3.6,8.5,29,0.00,,,0.00,WUHU216HW,2013-02-07 21:36:00,
2013-02-07 14:37:00,64.1,31.1,29.96,ESE,113,6.7,8.5,29,0.00,,,0.00,WUHU216HW,2013-02-07 21:37:00,
2013-02-07 14:39:00,64.1,31.1,29.96,NE,45,1.6,8.5,29,0.00,,,0.00,WUHU216HW,2013-02-07 21:39:00,
2013-02-07 14:40:00,64.1,31.1,29.95,SE,135,3.4,8.5,29,0.00,,,0.00,WUHU216HW,2013-02-07 21:40:00,
2013-02-07 14:41:00,64.3,32.2,29.95,ESE,113,5.4,8.5,30,0.00,,,0.00,WUHU216HW,2013-02-07 21:41:00,
2013-02-07 14:42:00,64.1,32.0,29.95,ENE,68,6.3,8.5,30,0.00,,,0.00,WUHU216HW,2013-02-07 21:42:00,
2013-02-07 14:44:00,64.3,31.2,29.95,SE,135,4.3,8.5,29,0.00,,,0.00,WUHU216HW,2013-02-07 21:44:00,
2013-02-07 14:45:00,64.3,31.2,29.95,SE,135,3.4,7.6,29,0.00,,,0.00,WUHU216HW,2013-02-07 21:45:00,
2013-02-07 14:46:00,64.3,31.2,29.95,ESE,113,2.5,6.9,29,0.00,,,0.00,WUHU216HW,2013-02-07 21:46:00,
2013-02-07 14:47:00,64.3,31.2,29.95,SSE,158,6.9,8.9,29,0.00,,,0.00,WUHU216HW,2013-02-07 21:47:00,
2013-02-07 14:49:00,64.3,31.2,29.95,South,180,6.0,9.2,29,0.00,,,0.00,WUHU216HW,2013-02-07 21:49:00,
2013-02-07 14:51:00,64.4,31.4,29.95,ESE,113,4.7,9.2,29,0.00,,,0.00,WUHU216HW,2013-02-07 21:51:00,
2013-02-07 14:52:00,64.4,31.4,29.95,East,90,8.1,9.2,29,0.00,,,0.00,WUHU216HW,2013-02-07 21:52:00,
2013-02-07 14:54:00,64.4,31.4,29.95,ENE,68,1.1,9.2,29,0.00,,,0.00,WUHU216HW,2013-02-07 21:54:00,
2013-02-07 14:56:00,64.4,31.4,29.95,South,180,5.6,9.2,29,0.00,,,0.00,WUHU216HW,2013-02-07 21:56:00,
2013-02-07 14:57:00,64.6,30.6,29.95,SSE,158,1.8,9.2,28,0.00,,,0.00,WUHU216HW,2013-02-07 21:57:00,
2013-02-07 14:59:00,64.6,31.6,29.95,SE,135,3.1,8.1,29,0.00,,,0.00,WUHU216HW,2013-02-07 21:59:00,
2013-02-07 15:01:00,64.6,31.6,29.95,SSE,158,7.4,8.3,29,0.00,,,0.00,WUHU216HW,2013-02-07 22:01:00,
2013-02-07 15:02:00,64.6,30.6,29.95,ESE,113,7.4,8.3,28,0.00,,,0.00,WUHU216HW,2013-02-07 22:02:00,
2013-02-07 15:04:00,64.6,31.6,29.94,ESE,113,7.4,8.9,29,0.00,,,0.00,WUHU216HW,2013-02-07 22:04:00,
2013-02-07 15:06:00,64.6,31.6,29.95,SE,135,8.1,10.1,29,0.00,,,0.00,WUHU216HW,2013-02-07 22:06:00,
2013-02-07 15:07:00,64.8,31.8,29.95,East,90,4.0,10.1,29,0.00,,,0.00,WUHU216HW,2013-02-07 22:07:00,
2013-02-07 15:09:00,64.8,31.8,29.94,ESE,113,7.4,10.1,29,0.00,,,0.00,WUHU216HW,2013-02-07 22:09:00,
2013-02-07 15:12:00,64.6,30.6,29.95,ESE,113,6.3,10.1,28,0.00,,,0.00,WUHU216HW,2013-02-07 22:12:00,
2013-02-07 15:14:00,64.4,31.4,29.94,ESE,113,8.1,12.1,29,0.00,,,0.00,WUHU216HW,2013-02-07 22:14:00,
2013-02-07 15:17:00,64.4,30.4,29.95,East,90,8.1,12.1,28,0.00,,,0.00,WUHU216HW,2013-02-07 22:17:00,
2013-02-07 15:19:00,64.4,31.4,29.94,ESE,113,8.7,12.1,29,0.00,,,0.00,WUHU216HW,2013-02-07 22:19:00,
2013-02-07 15:22:00,64.4,31.4,29.95,SE,135,9.8,12.1,29,0.00,,,0.00,WUHU216HW,2013-02-07 22:22:00,
2013-02-07 15:24:00,64.4,30.4,29.94,ENE,68,5.4,11.2,28,0.00,,,0.00,WUHU216HW,2013-02-07 22:24:00,
2013-02-07 15:27:00,64.6,30.6,29.94,ENE,68,5.4,11.2,28,0.00,,,0.00,WUHU216HW,2013-02-07 22:27:00,
2013-02-07 15:28:00,64.6,30.6,29.94,SE,135,7.6,9.8,28,0.00,,,0.00,WUHU216HW,2013-02-07 22:28:00,
2013-02-07 15:29:00,64.8,30.8,29.95,SE,135,6.3,9.8,28,0.00,,,0.00,WUHU216HW,2013-02-07 22:29:00,
2013-02-07 15:32:00,64.8,30.8,29.94,East,90,6.7,9.8,28,0.00,,,0.00,WUHU216HW,2013-02-07 22:32:00,
2013-02-07 15:33:00,64.8,30.8,29.94,SSE,158,7.2,9.6,28,0.00,,,0.00,WUHU216HW,2013-02-07 22:33:00,
2013-02-07 15:34:00,64.8,30.8,29.94,SE,135,3.6,9.2,28,0.00,,,0.00,WUHU216HW,2013-02-07 22:34:00,
2013-02-07 15:37:00,65.0,30.9,29.94,SE,135,4.7,10.5,28,0.00,,,0.00,WUHU216HW,2013-02-07 22:37:00,
2013-02-07 15:38:00,65.0,30.9,29.94,SSE,158,7.2,10.5,28,0.00,,,0.00,WUHU216HW,2013-02-07 22:38:00,
2013-02-07 15:39:00,65.2,31.1,29.95,ESE,113,9.4,10.5,28,0.00,,,0.00,WUHU216HW,2013-02-07 22:39:00,
2013-02-07 15:42:00,65.2,31.1,29.94,SE,135,9.2,10.5,28,0.00,,,0.00,WUHU216HW,2013-02-07 22:42:00,
2013-02-07 15:43:00,65.2,31.1,29.94,ESE,113,8.3,10.5,28,0.00,,,0.00,WUHU216HW,2013-02-07 22:43:00,
2013-02-07 15:44:00,65.2,31.1,29.94,East,90,6.9,11.4,28,0.00,,,0.00,WUHU216HW,2013-02-07 22:44:00,
2013-02-07 15:47:00,65.0,30.9,29.94,SE,135,6.0,11.4,28,0.00,,,0.00,WUHU216HW,2013-02-07 22:47:00,
2013-02-07 15:48:00,65.0,28.9,29.94,SE,135,8.9,11.4,26,0.00,,,0.00,WUHU216HW,2013-02-07 22:48:00,
2013-02-07 15:50:00,65.2,29.1,29.94,SE,135,7.2,11.4,26,0.00,,,0.00,WUHU216HW,2013-02-07 22:50:00,
2013-02-07 15:52:00,65.2,29.1,29.94,SSE,158,8.5,11.4,26,0.00,,,0.00,WUHU216HW,2013-02-07 22:52:00,
2013-02-07 15:53:00,65.2,29.1,29.94,SSE,158,6.3,11.4,26,0.00,,,0.00,WUHU216HW,2013-02-07 22:53:00,
2013-02-07 15:55:00,65.2,29.1,29.94,ESE,113,11.4,11.4,26,0.00,,,0.00,WUHU216HW,2013-02-07 22:55:00,
2013-02-07 15:57:00,65.0,28.9,29.94,SE,135,6.3,11.4,26,0.00,,,0.00,WUHU216HW,2013-02-07 22:57:00,
2013-02-07 15:58:00,65.0,28.9,29.94,SE,135,7.8,11.4,26,0.00,,,0.00,WUHU216HW,2013-02-07 22:58:00,
2013-02-07 16:00:00,64.8,28.7,29.94,ESE,113,8.5,11.4,26,0.00,,,0.00,WUHU216HW,2013-02-07 23:00:00,
2013-02-07 16:02:00,64.8,28.7,29.94,ESE,113,3.1,11.4,26,0.00,,,0.00,WUHU216HW,2013-02-07 23:02:00,
2013-02-07 16:03:00,64.8,28.7,29.94,SE,135,3.6,11.4,26,0.00,,,0.00,WUHU216HW,2013-02-07 23:03:00,
2013-02-07 16:05:00,65.0,28.9,29.94,SE,135,8.5,11.4,26,0.00,,,0.00,WUHU216HW,2013-02-07 23:05:00,
2013-02-07 16:08:00,65.0,28.9,29.94,SSE,158,2.5,9.8,26,0.00,,,0.00,WUHU216HW,2013-02-07 23:08:00,
2013-02-07 16:10:00,65.0,28.9,29.94,SE,135,6.5,9.8,26,0.00,,,0.00,WUHU216HW,2013-02-07 23:10:00,
2013-02-07 16:13:00,65.0,28.9,29.94,SE,135,2.5,8.5,26,0.00,,,0.00,WUHU216HW,2013-02-07 23:13:00,
2013-02-07 16:14:00,65.0,28.9,29.94,SE,135,6.9,8.5,26,0.00,,,0.00,WUHU216HW,2013-02-07 23:14:00,
2013-02-07 16:15:00,65.0,28.9,29.94,ESE,113,6.3,8.3,26,0.00,,,0.00,WUHU216HW,2013-02-07 23:15:00,
2013-02-07 16:18:00,65.0,28.9,29.94,ESE,113,7.4,7.6,26,0.00,,,0.00,WUHU216HW,2013-02-07 23:18:00,
2013-02-07 16:19:00,65.0,28.9,29.94,SE,135,6.9,7.6,26,0.00,,,0.00,WUHU216HW,2013-02-07 23:19:00,
2013-02-07 16:20:00,65.0,29.9,29.94,ESE,113,6.7,9.8,27,0.00,,,0.00,WUHU216HW,2013-02-07 23:20:00,
2013-02-07 16:23:00,65.0,28.9,29.94,SSE,158,7.2,9.8,26,0.00,,,0.00,WUHU216HW,2013-02-07 23:23:00,
2013-02-07 16:24:00,65.0,28.9,29.94,SSE,158,5.4,9.8,26,0.00,,,0.00,WUHU216HW,2013-02-07 23:24:00,
2013-02-07 16:25:00,65.0,28.9,29.94,East,90,2.5,9.8,26,0.00,,,0.00,WUHU216HW,2013-02-07 23:25:00,
2013-02-07 16:28:00,65.0,28.9,29.94,SSE,158,5.8,9.8,26,0.00,,,0.00,WUHU216HW,2013-02-07 23:28:00,
2013-02-07 16:29:00,65.0,29.9,29.94,SE,135,7.6,9.8,27,0.00,,,0.00,WUHU216HW,2013-02-07 23:29:00,
2013-02-07 16:30:00,65.0,29.9,29.94,SSE,158,9.6,9.6,27,0.00,,,0.00,WUHU216HW,2013-02-07 23:30:00,
2013-02-07 16:33:00,65.0,29.9,29.94,SE,135,5.1,11.0,27,0.00,,,0.00,WUHU216HW,2013-02-07 23:33:00,
2013-02-07 16:34:00,65.0,30.9,29.94,SE,135,5.6,11.0,28,0.00,,,0.00,WUHU216HW,2013-02-07 23:34:00,
2013-02-07 16:36:00,65.0,30.9,29.94,ESE,113,1.8,11.0,28,0.00,,,0.00,WUHU216HW,2013-02-07 23:36:00,
2013-02-07 16:38:00,65.0,30.9,29.94,ESE,113,3.6,11.0,28,0.00,,,0.00,WUHU216HW,2013-02-07 23:38:00,
2013-02-07 16:39:00,65.0,30.9,29.94,SE,135,8.5,11.0,28,0.00,,,0.00,WUHU216HW,2013-02-07 23:39:00,
2013-02-07 16:41:00,65.0,30.9,29.94,SE,135,8.7,9.2,28,0.00,,,0.00,WUHU216HW,2013-02-07 23:41:00,
2013-02-07 16:43:00,65.0,28.9,29.94,South,180,0.7,9.2,26,0.00,,,0.00,WUHU216HW,2013-02-07 23:43:00,
2013-02-07 16:44:00,65.0,28.9,29.94,SSW,203,2.9,9.2,26,0.00,,,0.00,WUHU216HW,2013-02-07 23:44:00,
2013-02-07 16:46:00,64.8,26.7,29.94,SW,225,5.8,9.2,24,0.00,,,0.00,WUHU216HW,2013-02-07 23:46:00,
2013-02-07 16:48:00,64.8,26.7,29.94,SW,225,4.0,9.2,24,0.00,,,0.00,WUHU216HW,2013-02-07 23:48:00,
2013-02-07 16:49:00,64.8,26.7,29.94,SW,225,4.5,9.2,24,0.00,,,0.00,WUHU216HW,2013-02-07 23:49:00,
2013-02-07 16:51:00,64.8,25.7,29.94,WSW,248,5.6,8.7,23,0.00,,,0.00,WUHU216HW,2013-02-07 23:51:00,
2013-02-07 16:54:00,64.8,26.7,29.94,WSW,248,3.4,7.6,24,0.00,,,0.00,WUHU216HW,2013-02-07 23:54:00,
2013-02-07 16:57:00,64.8,26.7,29.94,SW,225,6.0,7.6,24,0.00,,,0.00,WUHU216HW,2013-02-07 23:57:00,
2013-02-07 16:59:00,64.8,26.7,29.94,WSW,248,4.7,7.6,24,0.00,,,0.00,WUHU216HW,2013-02-07 23:59:00,
2013-02-07 17:02:00,64.8,26.7,29.94,WSW,248,6.3,6.3,24,0.00,,,0.00,WUHU216HW,2013-02-08 00:02:00,
2013-02-07 17:04:00,64.8,25.7,29.94,WSW,248,3.1,6.3,23,0.00,,,0.00,WUHU216HW,2013-02-08 00:04:00,
2013-02-07 17:05:00,64.8,26.7,29.94,West,270,3.6,6.3,24,0.00,,,0.00,WUHU216HW,2013-02-08 00:05:00,
2013-02-07 17:07:00,64.8,26.7,29.94,WSW,248,2.5,6.3,24,0.00,,,0.00,WUHU216HW,2013-02-08 00:07:00,
2013-02-07 17:09:00,65.0,26.9,29.94,SW,225,1.8,6.3,24,0.00,,,0.00,WUHU216HW,2013-02-08 00:09:00,
2013-02-07 17:10:00,65.2,27.1,29.94,West,270,1.6,6.3,24,0.00,,,0.00,WUHU216HW,2013-02-08 00:10:00,
2013-02-07 17:12:00,65.3,28.3,29.94,SW,225,0.9,4.0,25,0.00,,,0.00,WUHU216HW,2013-02-08 00:12:00,
2013-02-07 17:14:00,65.5,28.4,29.94,SW,225,2.7,3.6,25,0.00,,,0.00,WUHU216HW,2013-02-08 00:14:00,
2013-02-07 17:15:00,65.9,28.7,29.94,SW,225,3.4,3.6,25,0.00,,,0.00,WUHU216HW,2013-02-08 00:15:00,
2013-02-07 17:16:00,66.1,28.8,29.94,WSW,248,2.7,3.4,25,0.00,,,0.00,WUHU216HW,2013-02-08 00:16:00,
2013-02-07 17:17:00,66.6,28.3,29.94,West,270,1.8,3.4,24,0.00,,,0.00,WUHU216HW,2013-02-08 00:17:00,
2013-02-07 17:19:00,67.1,28.7,29.94,SW,225,1.8,3.4,24,0.00,,,0.00,WUHU216HW,2013-02-08 00:19:00,
2013-02-07 17:20:00,67.5,29.1,29.94,WSW,248,2.2,3.4,24,0.00,,,0.00,WUHU216HW,2013-02-08 00:20:00,
2013-02-07 17:21:00,67.7,29.3,29.94,SW,225,1.8,3.4,24,0.00,,,0.00,WUHU216HW,2013-02-08 00:21:00,
2013-02-07 17:23:00,68.0,29.5,29.94,WSW,248,2.5,3.4,24,0.00,,,0.00,WUHU216HW,2013-02-08 00:23:00,
2013-02-07 17:24:00,68.0,29.5,29.94,WSW,248,3.6,3.6,24,0.00,,,0.00,WUHU216HW,2013-02-08 00:24:00,
2013-02-07 17:25:00,68.0,29.5,29.94,WSW,248,3.8,3.8,24,0.00,,,0.00,WUHU216HW,2013-02-08 00:25:00,
2013-02-07 17:26:00,68.0,29.5,29.94,SW,225,3.4,3.8,24,0.00,,,0.00,WUHU216HW,2013-02-08 00:26:00,
2013-02-07 17:28:00,67.7,29.3,29.94,WSW,248,2.9,4.0,24,0.00,,,0.00,WUHU216HW,2013-02-08 00:28:00,
2013-02-07 17:29:00,67.3,29.9,29.94,SW,225,1.8,4.0,25,0.00,,,0.00,WUHU216HW,2013-02-08 00:29:00,
2013-02-07 17:30:00,66.8,29.4,29.94,SW,225,2.7,4.0,25,0.00,,,0.00,WUHU216HW,2013-02-08 00:30:00,
2013-02-07 17:31:00,66.6,29.3,29.94,WSW,248,2.2,4.0,25,0.00,,,0.00,WUHU216HW,2013-02-08 00:31:00,
2013-02-07 17:33:00,65.9,28.7,29.94,WSW,248,3.4,4.0,25,0.00,,,0.00,WUHU216HW,2013-02-08 00:33:00,
2013-02-07 17:34:00,65.3,29.3,29.94,WSW,248,2.5,4.0,26,0.00,,,0.00,WUHU216HW,2013-02-08 00:34:00,
2013-02-07 17:36:00,65.0,28.9,29.94,SW,225,2.5,4.0,26,0.00,,,0.00,WUHU216HW,2013-02-08 00:36:00,
2013-02-07 17:38:00,64.3,28.3,29.95,SSE,158,1.1,3.4,26,0.00,,,0.00,WUHU216HW,2013-02-08 00:38:00,
2013-02-07 17:39:00,63.9,29.0,29.95,SW,225,3.4,4.0,27,0.00,,,0.00,WUHU216HW,2013-02-08 00:39:00,
2013-02-07 17:41:00,63.4,28.5,29.95,South,180,2.9,4.0,27,0.00,,,0.00,WUHU216HW,2013-02-08 00:41:00,
2013-02-07 17:42:00,63.2,28.4,29.94,South,180,2.5,4.0,27,0.00,,,0.00,WUHU216HW,2013-02-08 00:42:00,
2013-02-07 17:44:00,62.6,27.9,29.95,South,180,3.1,4.0,27,0.00,,,0.00,WUHU216HW,2013-02-08 00:44:00,
2013-02-07 17:46:00,61.9,28.2,29.95,SSW,203,3.6,4.7,28,0.00,,,0.00,WUHU216HW,2013-02-08 00:46:00,
2013-02-07 17:47:00,61.7,28.1,29.95,SSW,203,2.2,4.7,28,0.00,,,0.00,WUHU216HW,2013-02-08 00:47:00,
2013-02-07 17:49:00,61.0,28.4,29.95,SW,225,3.1,4.7,29,0.00,,,0.00,WUHU216HW,2013-02-08 00:49:00,
2013-02-07 17:50:00,60.8,28.2,29.95,SW,225,3.4,4.7,29,0.00,,,0.00,WUHU216HW,2013-02-08 00:50:00,
2013-02-07 17:51:00,60.5,27.9,29.95,SW,225,2.2,4.7,29,0.00,,,0.00,WUHU216HW,2013-02-08 00:51:00,
2013-02-07 17:53:00,60.1,28.6,29.94,SW,225,2.5,4.7,30,0.00,,,0.00,WUHU216HW,2013-02-08 00:53:00,
2013-02-07 17:55:00,59.6,28.9,29.94,SW,225,2.9,4.7,31,0.00,,,0.00,WUHU216HW,2013-02-08 00:55:00,
2013-02-07 17:56:00,59.2,28.5,29.95,SW,225,4.0,4.0,31,0.00,,,0.00,WUHU216HW,2013-02-08 00:56:00,
2013-02-07 17:58:00,58.7,28.1,29.95,SW,225,2.5,4.0,31,0.00,,,0.00,WUHU216HW,2013-02-08 00:58:00,
2013-02-07 18:00:00,58.3,27.8,29.95,SW,225,2.5,4.0,31,0.00,,,0.00,WUHU216HW,2013-02-08 01:00:00,
2013-02-07 18:01:00,58.0,28.2,29.95,SW,225,2.5,4.0,32,0.00,,,0.00,WUHU216HW,2013-02-08 01:01:00,
2013-02-07 18:03:00,57.8,28.0,29.94,SW,225,2.5,4.0,32,0.00,,,0.00,WUHU216HW,2013-02-08 01:03:00,
2013-02-07 18:05:00,57.4,27.6,29.94,SW,225,1.3,4.0,32,0.00,,,0.00,WUHU216HW,2013-02-08 01:05:00,
2013-02-07 18:06:00,57.2,28.2,29.95,SW,225,0.4,4.0,33,0.00,,,0.00,WUHU216HW,2013-02-08 01:06:00,
2013-02-07 18:09:00,56.9,27.9,29.94,SW,225,1.1,3.1,33,0.00,,,0.00,WUHU216HW,2013-02-08 01:09:00,
2013-02-07 18:10:00,56.5,27.5,29.94,SW,225,1.8,3.1,33,0.00,,,0.00,WUHU216HW,2013-02-08 01:10:00,
2013-02-07 18:11:00,56.5,28.3,29.94,WSW,248,1.8,3.1,34,0.00,,,0.00,WUHU216HW,2013-02-08 01:11:00,
2013-02-07 18:14:00,56.0,27.8,29.94,SW,225,2.5,2.5,34,0.00,,,0.00,WUHU216HW,2013-02-08 01:14:00,
2013-02-07 18:15:00,55.6,27.5,29.94,WSW,248,1.8,2.5,34,0.00,,,0.00,WUHU216HW,2013-02-08 01:15:00,
2013-02-07 18:16:00,55.4,27.3,29.94,WSW,248,1.8,2.5,34,0.00,,,0.00,WUHU216HW,2013-02-08 01:16:00,
2013-02-07 18:19:00,55.1,28.4,29.94,SW,225,2.5,2.5,36,0.00,,,0.00,WUHU216HW,2013-02-08 01:19:00,
2013-02-07 18:20:00,54.9,28.3,29.94,WSW,248,1.8,2.7,36,0.00,,,0.00,WUHU216HW,2013-02-08 01:20:00,
2013-02-07 18:21:00,54.7,28.1,29.94,WSW,248,1.8,2.7,36,0.00,,,0.00,WUHU216HW,2013-02-08 01:21:00,
2013-02-07 18:24:00,54.5,27.9,29.94,WSW,248,2.9,2.9,36,0.00,,,0.00,WUHU216HW,2013-02-08 01:24:00,
2013-02-07 18:26:00,54.4,27.7,29.94,WSW,248,1.8,2.9,36,0.00,,,0.00,WUHU216HW,2013-02-08 01:26:00,
2013-02-07 18:29:00,54.4,27.7,29.94,WSW,248,2.0,2.9,36,0.00,,,0.00,WUHU216HW,2013-02-08 01:29:00,
2013-02-07 18:31:00,54.2,28.3,29.94,SW,225,4.0,4.0,37,0.00,,,0.00,WUHU216HW,2013-02-08 01:31:00,
2013-02-07 18:34:00,54.0,28.2,29.95,SW,225,4.5,4.7,37,0.00,,,0.00,WUHU216HW,2013-02-08 01:34:00,
2013-02-07 18:36:00,53.8,28.0,29.95,WSW,248,5.1,6.3,37,0.00,,,0.00,WUHU216HW,2013-02-08 01:36:00,
2013-02-07 18:37:00,53.6,27.8,29.94,SW,225,5.8,6.3,37,0.00,,,0.00,WUHU216HW,2013-02-08 01:37:00,
2013-02-07 18:39:00,53.6,28.5,29.95,SW,225,4.3,6.7,38,0.00,,,0.00,WUHU216HW,2013-02-08 01:39:00,
2013-02-07 18:41:00,53.3,28.2,29.94,WSW,248,3.6,6.7,38,0.00,,,0.00,WUHU216HW,2013-02-08 01:41:00,
2013-02-07 18:42:00,53.3,28.2,29.94,WSW,248,3.6,6.7,38,0.00,,,0.00,WUHU216HW,2013-02-08 01:42:00,
2013-02-07 18:44:00,53.1,27.4,29.94,WSW,248,3.6,6.7,37,0.00,,,0.00,WUHU216HW,2013-02-08 01:44:00,
2013-02-07 18:46:00,53.1,27.4,29.94,West,270,3.6,6.7,37,0.00,,,0.00,WUHU216HW,2013-02-08 01:46:00,
2013-02-07 18:47:00,53.1,27.4,29.94,WSW,248,4.0,6.7,37,0.00,,,0.00,WUHU216HW,2013-02-08 01:47:00,
2013-02-07 18:49:00,53.1,28.0,29.94,WSW,248,5.1,6.3,38,0.00,,,0.00,WUHU216HW,2013-02-08 01:49:00,
2013-02-07 18:52:00,52.9,27.9,29.95,WSW,248,6.3,6.3,38,0.00,,,0.00,WUHU216HW,2013-02-08 01:52:00,
2013-02-07 18:54:00,52.6,27.5,29.94,WSW,248,4.7,6.3,38,0.00,,,0.00,WUHU216HW,2013-02-08 01:54:00,
2013-02-07 18:57:00,52.4,27.4,29.95,SW,225,5.4,6.3,38,0.00,,,0.00,WUHU216HW,2013-02-08 01:57:00,
2013-02-07 18:59:00,52.2,27.2,29.95,WSW,248,4.5,6.3,38,0.00,,,0.00,WUHU216HW,2013-02-08 01:59:00,
2013-02-07 19:02:00,52.2,27.2,29.95,WSW,248,4.5,6.0,38,0.00,,,0.00,WUHU216HW,2013-02-08 02:02:00,
2013-02-07 19:04:00,52.0,27.1,29.95,WSW,248,4.3,6.0,38,0.00,,,0.00,WUHU216HW,2013-02-08 02:04:00,
2013-02-07 19:07:00,51.8,26.9,29.95,WSW,248,4.0,6.0,38,0.00,,,0.00,WUHU216HW,2013-02-08 02:07:00,
2013-02-07 19:09:00,51.8,26.9,29.95,SW,225,3.8,6.0,38,0.00,,,0.00,WUHU216HW,2013-02-08 02:09:00,
2013-02-07 19:12:00,51.7,26.7,29.95,SW,225,4.3,5.1,38,0.00,,,0.00,WUHU216HW,2013-02-08 02:12:00,
2013-02-07 19:13:00,51.7,26.7,29.95,WSW,248,4.7,4.9,38,0.00,,,0.00,WUHU216HW,2013-02-08 02:13:00,
2013-02-07 19:15:00,51.7,26.0,29.95,SW,225,5.1,5.8,37,0.00,,,0.00,WUHU216HW,2013-02-08 02:15:00,
2013-02-07 19:17:00,51.7,26.0,29.95,WSW,248,4.0,6.3,37,0.00,,,0.00,WUHU216HW,2013-02-08 02:17:00,
2013-02-07 19:18:00,51.7,26.0,29.95,WSW,248,4.0,6.3,37,0.00,,,0.00,WUHU216HW,2013-02-08 02:18:00,
2013-02-07 19:20:00,51.7,26.0,29.95,WSW,248,4.7,6.3,37,0.00,,,0.00,WUHU216HW,2013-02-08 02:20:00,
2013-02-07 19:22:00,51.7,26.0,29.95,SW,225,4.0,6.3,37,0.00,,,0.00,WUHU216HW,2013-02-08 02:22:00,
2013-02-07 19:23:00,51.7,26.0,29.95,SW,225,4.0,6.3,37,0.00,,,0.00,WUHU216HW,2013-02-08 02:23:00,
2013-02-07 19:25:00,51.8,26.2,29.95,SW,225,5.4,5.4,37,0.00,,,0.00,WUHU216HW,2013-02-08 02:25:00,
2013-02-07 19:27:00,51.7,26.0,29.95,SW,225,5.4,5.8,37,0.00,,,0.00,WUHU216HW,2013-02-08 02:27:00,
2013-02-07 19:28:00,51.7,26.0,29.95,SW,225,4.7,5.8,37,0.00,,,0.00,WUHU216HW,2013-02-08 02:28:00,
2013-02-07 19:30:00,51.5,25.9,29.95,SW,225,4.5,5.8,37,0.00,,,0.00,WUHU216HW,2013-02-08 02:30:00,
2013-02-07 19:33:00,51.5,25.9,29.95,SW,225,4.0,5.8,37,0.00,,,0.00,WUHU216HW,2013-02-08 02:33:00,
2013-02-07 19:35:00,51.3,25.8,29.95,SW,225,4.3,5.6,37,0.00,,,0.00,WUHU216HW,2013-02-08 02:35:00,
2013-02-07 19:38:00,51.1,25.6,29.95,SW,225,4.9,6.0,37,0.00,,,0.00,WUHU216HW,2013-02-08 02:38:00,
2013-02-07 19:40:00,50.9,25.4,29.95,SW,225,4.7,6.5,37,0.00,,,0.00,WUHU216HW,2013-02-08 02:40:00,
2013-02-07 19:43:00,50.8,25.2,29.95,SW,225,5.8,6.5,37,0.00,,,0.00,WUHU216HW,2013-02-08 02:43:00,
2013-02-07 19:46:00,50.8,25.2,29.95,WSW,248,4.0,6.5,37,0.00,,,0.00,WUHU216HW,2013-02-08 02:46:00,
2013-02-07 19:48:00,50.8,25.2,29.95,WSW,248,4.5,6.5,37,0.00,,,0.00,WUHU216HW,2013-02-08 02:48:00,
2013-02-07 19:49:00,50.8,25.2,29.95,SW,225,3.8,6.5,37,0.00,,,0.00,WUHU216HW,2013-02-08 02:49:00,
2013-02-07 19:51:00,50.8,25.2,29.95,SW,225,3.4,6.0,37,0.00,,,0.00,WUHU216HW,2013-02-08 02:51:00,
2013-02-07 19:53:00,50.8,25.2,29.95,WSW,248,4.0,5.8,37,0.00,,,0.00,WUHU216HW,2013-02-08 02:53:00,
2013-02-07 19:54:00,50.8,25.2,29.95,WSW,248,4.0,5.4,37,0.00,,,0.00,WUHU216HW,2013-02-08 02:54:00,
2013-02-07 19:56:00,50.8,25.2,29.95,SW,225,4.0,4.7,37,0.00,,,0.00,WUHU216HW,2013-02-08 02:56:00,
2013-02-07 19:58:00,50.8,25.2,29.95,SW,225,4.5,4.7,37,0.00,,,0.00,WUHU216HW,2013-02-08 02:58:00,
2013-02-07 19:59:00,50.8,25.2,29.95,WSW,248,3.4,4.7,37,0.00,,,0.00,WUHU216HW,2013-02-08 02:59:00,
2013-02-07 20:01:00,50.8,25.2,29.95,SW,225,5.8,5.8,37,0.00,,,0.00,WUHU216HW,2013-02-08 03:01:00,
2013-02-07 20:03:00,50.8,25.2,29.95,SW,225,3.4,5.8,37,0.00,,,0.00,WUHU216HW,2013-02-08 03:03:00,
2013-02-07 20:04:00,50.8,25.2,29.95,SW,225,3.6,5.8,37,0.00,,,0.00,WUHU216HW,2013-02-08 03:04:00,
2013-02-07 20:06:00,50.6,25.1,29.95,SSW,203,2.9,5.8,37,0.00,,,0.00,WUHU216HW,2013-02-08 03:06:00,
2013-02-07 20:08:00,50.6,25.1,29.95,SW,225,3.8,5.8,37,0.00,,,0.00,WUHU216HW,2013-02-08 03:08:00,
2013-02-07 20:09:00,50.6,25.1,29.95,WSW,248,3.4,5.8,37,0.00,,,0.00,WUHU216HW,2013-02-08 03:09:00,
2013-02-07 20:11:00,50.4,25.6,29.95,WSW,248,3.8,5.8,38,0.00,,,0.00,WUHU216HW,2013-02-08 03:11:00,
2013-02-07 20:13:00,50.4,25.6,29.95,SW,225,4.0,4.3,38,0.00,,,0.00,WUHU216HW,2013-02-08 03:13:00,
2013-02-07 20:14:00,50.4,25.6,29.95,SW,225,3.4,4.3,38,0.00,,,0.00,WUHU216HW,2013-02-08 03:14:00,
2013-02-07 20:16:00,50.4,25.6,29.96,WSW,248,3.6,4.9,38,0.00,,,0.00,WUHU216HW,2013-02-08 03:16:00,
2013-02-07 20:19:00,50.4,25.6,29.95,SW,225,4.7,4.9,38,0.00,,,0.00,WUHU216HW,2013-02-08 03:19:00,
2013-02-07 20:21:00,50.4,25.6,29.95,SW,225,4.7,5.1,38,0.00,,,0.00,WUHU216HW,2013-02-08 03:21:00,
2013-02-07 20:24:00,50.4,24.9,29.95,WSW,248,4.7,5.1,37,0.00,,,0.00,WUHU216HW,2013-02-08 03:24:00,
2013-02-07 20:25:00,50.4,25.6,29.95,WSW,248,4.7,5.4,38,0.00,,,0.00,WUHU216HW,2013-02-08 03:25:00,
2013-02-07 20:27:00,50.4,25.6,29.95,SW,225,4.7,5.4,38,0.00,,,0.00,WUHU216HW,2013-02-08 03:27:00,
2013-02-07 20:29:00,50.4,25.6,29.95,SW,225,4.7,5.4,38,0.00,,,0.00,WUHU216HW,2013-02-08 03:29:00,
2013-02-07 20:30:00,50.4,25.6,29.95,WSW,248,5.6,5.6,38,0.00,,,0.00,WUHU216HW,2013-02-08 03:30:00,
2013-02-07 20:32:00,50.2,25.5,29.95,SW,225,4.5,5.6,38,0.00,,,0.00,WUHU216HW,2013-02-08 03:32:00,
2013-02-07 20:34:00,50.2,25.5,29.95,WSW,248,4.3,5.6,38,0.00,,,0.00,WUHU216HW,2013-02-08 03:34:00,
2013-02-07 20:35:00,50.2,25.5,29.95,SW,225,4.0,5.6,38,0.00,,,0.00,WUHU216HW,2013-02-08 03:35:00,
2013-02-07 20:37:00,50.2,25.5,29.95,SSW,203,4.7,5.6,38,0.00,,,0.00,WUHU216HW,2013-02-08 03:37:00,
2013-02-07 20:39:00,50.2,25.5,29.95,SW,225,4.9,5.6,38,0.00,,,0.00,WUHU216HW,2013-02-08 03:39:00,
2013-02-07 20:40:00,50.2,25.5,29.95,SW,225,4.3,5.6,38,0.00,,,0.00,WUHU216HW,2013-02-08 03:40:00,
2013-02-07 20:42:00,50.2,25.5,29.95,SW,225,3.1,5.4,38,0.00,,,0.00,WUHU216HW,2013-02-08 03:42:00,
2013-02-07 20:44:00,50.2,25.5,29.95,SW,225,2.7,5.4,38,0.00,,,0.00,WUHU216HW,2013-02-08 03:44:00,
2013-02-07 20:46:00,50.2,25.5,29.96,ENE,68,5.4,5.4,38,0.00,,,0.00,WUHU216HW,2013-02-08 03:46:00,
2013-02-07 20:47:00,50.0,25.3,29.96,ESE,113,6.3,9.2,38,0.00,,,0.00,WUHU216HW,2013-02-08 03:47:00,
2013-02-07 20:49:00,50.0,25.3,29.96,NNE,23,2.9,9.2,38,0.00,,,0.00,WUHU216HW,2013-02-08 03:49:00,
2013-02-07 20:51:00,49.7,24.9,29.96,ENE,68,1.8,9.2,38,0.00,,,0.00,WUHU216HW,2013-02-08 03:51:00,
2013-02-07 20:52:00,49.7,24.9,29.96,ESE,113,1.1,9.2,38,0.00,,,0.00,WUHU216HW,2013-02-08 03:52:00,
2013-02-07 20:54:00,49.5,24.9,29.96,North,0,1.1,9.2,38,0.00,,,0.00,WUHU216HW,2013-02-08 03:54:00,
2013-02-07 20:55:00,49.5,24.9,29.96,North,0,1.1,9.2,38,0.00,,,0.00,WUHU216HW,2013-02-08 03:55:00,
2013-02-07 20:56:00,49.3,24.7,29.96,North,0,0.0,9.2,38,0.00,,,0.00,WUHU216HW,2013-02-08 03:56:00,
2013-02-07 20:57:00,49.3,24.7,29.96,South,180,0.0,7.6,38,0.00,,,0.00,WUHU216HW,2013-02-08 03:57:00,
2013-02-07 20:59:00,49.3,24.7,29.96,SW,225,1.3,2.9,38,0.00,,,0.00,WUHU216HW,2013-02-08 03:59:00,
2013-02-07 21:00:00,49.1,24.5,29.96,SW,225,1.1,2.2,38,0.00,,,0.00,WUHU216HW,2013-02-08 04:00:00,
2013-02-07 21:01:00,49.0,24.3,29.96,NNW,338,1.1,2.0,38,0.00,,,0.00,WUHU216HW,2013-02-08 04:01:00,
2013-02-07 21:03:00,48.8,24.9,29.96,NNW,338,1.1,2.0,39,0.00,,,0.00,WUHU216HW,2013-02-08 04:03:00,
2013-02-07 21:04:00,48.6,24.7,29.96,NNW,338,0.4,1.8,39,0.00,,,0.00,WUHU216HW,2013-02-08 04:04:00,
2013-02-07 21:05:00,48.6,24.7,29.96,NNW,338,0.4,1.8,39,0.00,,,0.00,WUHU216HW,2013-02-08 04:05:00,
2013-02-07 21:06:00,48.6,24.7,29.96,WNW,293,0.4,1.8,39,0.00,,,0.00,WUHU216HW,2013-02-08 04:06:00,
2013-02-07 21:08:00,48.6,24.7,29.96,WNW,293,0.0,1.8,39,0.00,,,0.00,WUHU216HW,2013-02-08 04:08:00,
2013-02-07 21:09:00,48.4,24.5,29.96,SW,225,0.0,1.3,39,0.00,,,0.00,WUHU216HW,2013-02-08 04:09:00,
2013-02-07 21:10:00,48.4,24.5,29.96,SW,225,1.3,1.3,39,0.00,,,0.00,WUHU216HW,2013-02-08 04:10:00,
2013-02-07 21:12:00,48.2,24.4,29.96,SW,225,1.8,1.8,39,0.00,,,0.00,WUHU216HW,2013-02-08 04:12:00,
2013-02-07 21:13:00,48.1,24.8,29.96,SW,225,1.8,2.0,40,0.00,,,0.00,WUHU216HW,2013-02-08 04:13:00,
2013-02-07 21:14:00,47.9,24.7,29.96,West,270,2.5,2.5,40,0.00,,,0.00,WUHU216HW,2013-02-08 04:14:00,
2013-02-07 21:15:00,47.9,24.7,29.96,West,270,2.7,2.7,40,0.00,,,0.00,WUHU216HW,2013-02-08 04:15:00,
2013-02-07 21:17:00,47.7,25.1,29.95,West,270,1.8,2.7,41,0.00,,,0.00,WUHU216HW,2013-02-08 04:17:00,
2013-02-07 21:18:00,47.5,24.9,29.95,West,270,2.7,2.7,41,0.00,,,0.00,WUHU216HW,2013-02-08 04:18:00,
2013-02-07 21:19:00,47.5,24.9,29.95,WSW,248,3.6,3.6,41,0.00,,,0.00,WUHU216HW,2013-02-08 04:19:00,
2013-02-07 21:20:00,47.5,25.5,29.95,WSW,248,3.8,3.8,42,0.00,,,0.00,WUHU216HW,2013-02-08 04:20:00,
2013-02-07 21:22:00,47.5,25.5,29.95,WSW,248,2.0,3.8,42,0.00,,,0.00,WUHU216HW,2013-02-08 04:22:00,
2013-02-07 21:23:00,47.3,25.3,29.95,SW,225,2.7,3.8,42,0.00,,,0.00,WUHU216HW,2013-02-08 04:23:00,
2013-02-07 21:25:00,47.3,25.3,29.95,WSW,248,3.4,3.8,42,0.00,,,0.00,WUHU216HW,2013-02-08 04:25:00,
2013-02-07 21:27:00,47.2,25.1,29.95,WSW,248,2.0,3.8,42,0.00,,,0.00,WUHU216HW,2013-02-08 04:27:00,
2013-02-07 21:29:00,47.2,25.1,29.95,WSW,248,2.2,3.8,42,0.00,,,0.00,WUHU216HW,2013-02-08 04:29:00,
2013-02-07 21:30:00,47.2,25.1,29.95,WSW,248,2.7,3.8,42,0.00,,,0.00,WUHU216HW,2013-02-08 04:30:00,
2013-02-07 21:32:00,47.3,25.3,29.95,WSW,248,2.7,3.6,42,0.00,,,0.00,WUHU216HW,2013-02-08 04:32:00,
2013-02-07 21:34:00,47.2,25.7,29.95,WSW,248,3.1,3.6,43,0.00,,,0.00,WUHU216HW,2013-02-08 04:34:00,
2013-02-07 21:35:00,47.2,25.7,29.95,WSW,248,1.3,3.6,43,0.00,,,0.00,WUHU216HW,2013-02-08 04:35:00,
2013-02-07 21:37:00,47.2,25.7,29.95,SW,225,0.7,3.6,43,0.00,,,0.00,WUHU216HW,2013-02-08 04:37:00,
2013-02-07 21:39:00,47.2,25.7,29.95,WSW,248,2.5,3.6,43,0.00,,,0.00,WUHU216HW,2013-02-08 04:39:00,
2013-02-07 21:40:00,47.2,25.7,29.95,WSW,248,2.7,3.6,43,0.00,,,0.00,WUHU216HW,2013-02-08 04:40:00,
2013-02-07 21:41:00,47.2,25.7,29.95,West,270,2.5,3.6,43,0.00,,,0.00,WUHU216HW,2013-02-08 04:41:00,
2013-02-07 21:42:00,47.2,25.7,29.95,WSW,248,2.5,3.6,43,0.00,,,0.00,WUHU216HW,2013-02-08 04:42:00,
2013-02-07 21:44:00,47.0,25.5,29.95,WSW,248,0.4,2.9,43,0.00,,,0.00,WUHU216HW,2013-02-08 04:44:00,
2013-02-07 21:46:00,47.0,25.5,29.95,West,270,1.1,2.9,43,0.00,,,0.00,WUHU216HW,2013-02-08 04:46:00,
2013-02-07 21:47:00,47.0,26.0,29.95,WSW,248,2.7,2.9,44,0.00,,,0.00,WUHU216HW,2013-02-08 04:47:00,
2013-02-07 21:49:00,47.0,26.0,29.95,SW,225,1.1,3.4,44,0.00,,,0.00,WUHU216HW,2013-02-08 04:49:00,
2013-02-07 21:51:00,47.0,26.0,29.95,SW,225,0.0,3.4,44,0.00,,,0.00,WUHU216HW,2013-02-08 04:51:00,
2013-02-07 21:52:00,47.0,26.0,29.95,SSW,203,0.0,3.4,44,0.00,,,0.00,WUHU216HW,2013-02-08 04:52:00,
2013-02-07 21:54:00,46.8,25.9,29.95,SW,225,0.0,3.4,44,0.00,,,0.00,WUHU216HW,2013-02-08 04:54:00,
2013-02-07 21:56:00,46.8,25.9,29.95,WSW,248,1.8,3.4,44,0.00,,,0.00,WUHU216HW,2013-02-08 04:56:00,
2013-02-07 21:59:00,46.6,25.8,29.95,SW,225,2.0,2.5,44,0.00,,,0.00,WUHU216HW,2013-02-08 04:59:00,
2013-02-07 22:00:00,46.4,25.6,29.95,SW,225,1.8,2.5,44,0.00,,,0.00,WUHU216HW,2013-02-08 05:00:00,
2013-02-07 22:05:00,46.3,25.9,29.95,WSW,248,2.5,3.4,45,0.00,,,0.00,WUHU216HW,2013-02-08 05:05:00,
2013-02-07 22:10:00,45.7,25.5,29.95,WSW,248,2.2,3.4,45,0.00,,,0.00,WUHU216HW,2013-02-08 05:10:00,
2013-02-07 22:15:00,45.4,25.7,29.94,SW,225,3.4,4.3,46,0.00,,,0.00,WUHU216HW,2013-02-08 05:15:00,
2013-02-07 22:20:00,45.0,25.9,29.95,WSW,248,4.7,5.8,47,0.00,,,0.00,WUHU216HW,2013-02-08 05:20:00,
2013-02-07 22:21:00,44.8,25.8,29.95,WSW,248,4.9,5.8,47,0.00,,,0.00,WUHU216HW,2013-02-08 05:21:00,
2013-02-07 22:25:00,44.8,25.8,29.94,WSW,248,4.0,5.8,47,0.00,,,0.00,WUHU216HW,2013-02-08 05:25:00,
2013-02-07 22:26:00,44.8,25.8,29.94,SW,225,2.5,5.8,47,0.00,,,0.00,WUHU216HW,2013-02-08 05:26:00,
2013-02-07 22:30:00,45.0,25.9,29.94,SSW,203,2.9,4.9,47,0.00,,,0.00,WUHU216HW,2013-02-08 05:30:00,
2013-02-07 22:31:00,45.0,25.9,29.94,WSW,248,4.0,4.9,47,0.00,,,0.00,WUHU216HW,2013-02-08 05:31:00,
2013-02-07 22:35:00,45.0,25.9,29.94,WSW,248,1.8,4.9,47,0.00,,,0.00,WUHU216HW,2013-02-08 05:35:00,
2013-02-07 22:36:00,45.0,25.9,29.94,WSW,248,1.8,4.9,47,0.00,,,0.00,WUHU216HW,2013-02-08 05:36:00,
2013-02-07 22:41:00,44.8,25.8,29.94,WSW,248,4.3,5.1,47,0.00,,,0.00,WUHU216HW,2013-02-08 05:41:00,
2013-02-07 22:46:00,44.8,25.8,29.94,WSW,248,1.1,5.1,47,0.00,,,0.00,WUHU216HW,2013-02-08 05:46:00,
2013-02-07 22:47:00,44.8,25.8,29.94,WSW,248,2.5,5.1,47,0.00,,,0.00,WUHU216HW,2013-02-08 05:47:00,
2013-02-07 22:51:00,44.6,25.6,29.94,WSW,248,2.9,4.5,47,0.00,,,0.00,WUHU216HW,2013-02-08 05:51:00,
2013-02-07 22:52:00,44.6,25.6,29.94,WSW,248,2.2,2.9,47,0.00,,,0.00,WUHU216HW,2013-02-08 05:52:00,
2013-02-07 22:56:00,44.3,25.2,29.94,WSW,248,2.5,3.4,47,0.00,,,0.00,WUHU216HW,2013-02-08 05:56:00,
2013-02-07 22:57:00,44.3,25.2,29.94,WSW,248,3.4,3.8,47,0.00,,,0.00,WUHU216HW,2013-02-08 05:57:00,
2013-02-07 23:01:00,44.1,25.7,29.94,WSW,248,2.2,4.0,48,0.00,,,0.00,WUHU216HW,2013-02-08 06:01:00,
2013-02-07 23:02:00,43.9,25.5,29.94,West,270,2.9,4.0,48,0.00,,,0.00,WUHU216HW,2013-02-08 06:02:00,
2013-02-07 23:06:00,43.7,25.3,29.94,WSW,248,4.0,4.7,48,0.00,,,0.00,WUHU216HW,2013-02-08 06:06:00,
2013-02-07 23:07:00,43.7,25.3,29.94,West,270,3.4,4.7,48,0.00,,,0.00,WUHU216HW,2013-02-08 06:07:00,
2013-02-07 23:08:00,43.7,25.3,29.94,West,270,2.9,4.7,48,0.00,,,0.00,WUHU216HW,2013-02-08 06:08:00,
2013-02-07 23:11:00,43.6,25.7,29.94,SW,225,4.7,4.7,49,0.00,,,0.00,WUHU216HW,2013-02-08 06:11:00,
2013-02-07 23:12:00,43.6,25.7,29.94,SW,225,4.7,4.7,49,0.00,,,0.00,WUHU216HW,2013-02-08 06:12:00,
2013-02-07 23:13:00,43.6,25.7,29.94,WSW,248,4.5,4.7,49,0.00,,,0.00,WUHU216HW,2013-02-08 06:13:00,
2013-02-07 23:17:00,43.4,25.5,29.94,WSW,248,3.6,4.7,49,0.00,,,0.00,WUHU216HW,2013-02-08 06:17:00,
2013-02-07 23:18:00,43.4,25.5,29.93,WSW,248,4.3,4.7,49,0.00,,,0.00,WUHU216HW,2013-02-08 06:18:00,
2013-02-07 23:22:00,43.2,25.4,29.93,WSW,248,5.4,5.4,49,0.00,,,0.00,WUHU216HW,2013-02-08 06:22:00,
2013-02-07 23:23:00,43.2,25.9,29.94,WSW,248,4.9,5.4,50,0.00,,,0.00,WUHU216HW,2013-02-08 06:23:00,
2013-02-07 23:27:00,43.2,25.4,29.93,SSW,203,1.8,5.4,49,0.00,,,0.00,WUHU216HW,2013-02-08 06:27:00,
2013-02-07 23:28:00,43.2,25.4,29.93,SW,225,1.8,5.4,49,0.00,,,0.00,WUHU216HW,2013-02-08 06:28:00,
2013-02-07 23:32:00,43.2,25.4,29.93,SW,225,2.2,5.4,49,0.00,,,0.00,WUHU216HW,2013-02-08 06:32:00,
2013-02-07 23:33:00,43.2,25.4,29.94,SW,225,2.0,4.9,49,0.00,,,0.00,WUHU216HW,2013-02-08 06:33:00,
2013-02-07 23:37:00,43.0,25.2,29.93,SW,225,1.6,4.0,49,0.00,,,0.00,WUHU216HW,2013-02-08 06:37:00,
2013-02-07 23:38:00,42.8,25.0,29.93,WSW,248,1.6,4.0,49,0.00,,,0.00,WUHU216HW,2013-02-08 06:38:00,
2013-02-07 23:42:00,42.8,25.6,29.93,SE,135,1.3,3.1,50,0.00,,,0.00,WUHU216HW,2013-02-08 06:42:00,
2013-02-07 23:43:00,42.8,25.6,29.93,SSE,158,0.4,3.1,50,0.00,,,0.00,WUHU216HW,2013-02-08 06:43:00,
2013-02-07 23:47:00,42.5,25.2,29.93,SSW,203,1.8,2.9,50,0.00,,,0.00,WUHU216HW,2013-02-08 06:47:00,
2013-02-07 23:48:00,42.5,25.2,29.93,SSW,203,1.3,2.9,50,0.00,,,0.00,WUHU216HW,2013-02-08 06:48:00,
2013-02-07 23:52:00,42.1,24.8,29.93,SW,225,1.3,2.7,50,0.00,,,0.00,WUHU216HW,2013-02-08 06:52:00,
2013-02-07 23:53:00,42.1,24.8,29.93,WSW,248,1.1,2.7,50,0.00,,,0.00,WUHU216HW,2013-02-08 06:53:00,
2013-02-07 23:58:00,41.8,24.9,29.93,SW,225,1.3,2.5,51,0.00,,,0.00,WUHU216HW,2013-02-08 06:58:00,